| time (UTC) | temp F | wind direction | speed knots | gust knots | rain 1hr in | rain 24hr in | rain mn in | humidity % | barometer mb |
| 20260504100541 | 48 | 0 | 0.0 | 0.0 | 0.00 | 0.00 | 0.00 | 71 | 1018.4 |
| 20260504100442 | 48 | 0 | 0.0 | 0.0 | 0.00 | 0.00 | 0.00 | 71 | 1018.2 |
| 20260504100341 | 47 | 0 | 0.0 | 0.0 | 0.00 | 0.00 | 0.00 | 71 | 1018.3 |
| 20260504100242 | 47 | 0 | 0.0 | 0.0 | 0.00 | 0.00 | 0.00 | 70 | 1018.3 |
| 20260504100142 | 47 | 0 | 0.0 | 0.0 | 0.00 | 0.00 | 0.00 | 69 | 1018.5 |
| 20260504090139 | 49 | 0 | 0.0 | 0.0 | 0.00 | 0.00 | 0.00 | 64 | 1018.4 |
| 20260504081937 | 49 | 0 | 0.0 | 0.0 | 0.00 | 0.00 | 0.00 | 61 | 1018.5 |
| 20260504081837 | 49 | 0 | 0.0 | 0.0 | 0.00 | 0.00 | 0.00 | 61 | 1018.4 |
| 20260504081737 | 49 | 0 | 0.0 | 0.0 | 0.00 | 0.00 | 0.00 | 63 | 1018.5 |
| 20260504081637 | 49 | 0 | 0.0 | 0.0 | 0.00 | 0.00 | 0.00 | 61 | 1018.4 |
| 20260504081537 | 49 | 0 | 0.0 | 0.0 | 0.00 | 0.00 | 0.00 | 60 | 1018.4 |
| 20260504081437 | 49 | 0 | 0.0 | 0.0 | 0.00 | 0.00 | 0.00 | 60 | 1018.3 |
| 20260504081337 | 49 | 0 | 0.0 | 0.0 | 0.00 | 0.00 | 0.00 | 61 | 1018.3 |
| 20260504081237 | 49 | 0 | 0.0 | 0.0 | 0.00 | 0.00 | 0.00 | 61 | 1018.2 |
| 20260504081137 | 49 | 0 | 0.0 | 0.0 | 0.00 | 0.00 | 0.00 | 64 | 1018.4 |
| 20260504081037 | 49 | 0 | 0.0 | 0.0 | 0.00 | 0.00 | 0.00 | 62 | 1018.4 |
| 20260504080937 | 49 | 0 | 0.0 | 0.0 | 0.00 | 0.00 | 0.00 | 63 | 1018.2 |
| 20260504080837 | 49 | 0 | 0.0 | 0.0 | 0.00 | 0.00 | 0.00 | 62 | 1018.3 |
| 20260504080737 | 49 | 0 | 0.0 | 0.0 | 0.00 | 0.00 | 0.00 | 63 | 1018.3 |
| 20260504080637 | 49 | 0 | 0.0 | 0.0 | 0.00 | 0.00 | 0.00 | 62 | 1018.3 |
| 20260504080537 | 49 | 0 | 0.0 | 0.0 | 0.00 | 0.00 | 0.00 | 64 | 1018.3 |
| 20260504080436 | 49 | 0 | 0.0 | 0.0 | 0.00 | 0.00 | 0.00 | 62 | 1018.3 |
| 20260504080337 | 49 | 0 | 0.0 | 0.0 | 0.00 | 0.00 | 0.00 | 65 | 1018.2 |
| 20260504080236 | 49 | 0 | 0.0 | 0.0 | 0.00 | 0.00 | 0.00 | 64 | 1018.4 |
| 20260504080137 | 49 | 0 | 0.0 | 0.0 | 0.00 | 0.00 | 0.00 | 63 | 1018.3 |
| 20260504070335 | 49 | 0 | 0.0 | 0.0 | 0.00 | 0.00 | 0.00 | 60 | 1018.6 |
| 20260504070235 | 49 | 0 | 0.0 | 0.0 | 0.00 | 0.00 | 0.00 | 61 | 1018.5 |
| 20260504070135 | 49 | 0 | 0.0 | 0.0 | 0.00 | 0.00 | 0.00 | 61 | 1018.4 |
| 20260504060231 | 50 | 0 | 0.0 | 0.0 | 0.00 | 0.00 | 0.00 | 60 | 1018.8 |
| 20260504060131 | 50 | 0 | 0.0 | 0.0 | 0.00 | 0.00 | 0.00 | 58 | 1018.8 |
| 20260504050729 | 50 | 0 | 0.0 | 0.0 | 0.00 | 0.00 | 0.00 | 61 | 1018.6 |
| 20260504050629 | 50 | 0 | 0.0 | 0.0 | 0.00 | 0.00 | 0.00 | 60 | 1018.5 |
| 20260504050529 | 50 | 0 | 0.0 | 0.0 | 0.00 | 0.00 | 0.00 | 62 | 1018.4 |
| 20260504050430 | 50 | 0 | 0.0 | 0.0 | 0.00 | 0.00 | 0.00 | 62 | 1018.6 |
| 20260504050329 | 50 | 0 | 0.0 | 0.0 | 0.00 | 0.00 | 0.00 | 63 | 1018.6 |
| 20260504050229 | 50 | 0 | 0.0 | 0.0 | 0.00 | 0.00 | 0.00 | 63 | 1018.4 |
| 20260504050129 | 50 | 0 | 0.0 | 0.0 | 0.00 | 0.00 | 0.00 | 62 | 1018.6 |
| 20260504045929 | 50 | 0 | 0.0 | 0.0 | 0.00 | 0.00 | 0.00 | 62 | 1018.6 |
| 20260504045829 | 50 | 0 | 0.0 | 0.0 | 0.00 | 0.00 | 0.00 | 63 | 1018.6 |
| 20260504045728 | 50 | 0 | 0.0 | 0.0 | 0.00 | 0.00 | 0.00 | 63 | 1018.7 |
| 20260504045629 | 50 | 0 | 0.0 | 0.0 | 0.00 | 0.00 | 0.00 | 63 | 1018.6 |
| 20260504045529 | 50 | 0 | 0.0 | 0.0 | 0.00 | 0.00 | 0.00 | 64 | 1018.5 |
| 20260504045429 | 50 | 0 | 0.0 | 0.0 | 0.00 | 0.00 | 0.00 | 63 | 1018.4 |
| 20260504045329 | 50 | 0 | 0.0 | 0.0 | 0.00 | 0.00 | 0.00 | 63 | 1018.6 |
| 20260504045228 | 50 | 0 | 0.0 | 0.0 | 0.00 | 0.00 | 0.00 | 64 | 1018.5 |
| 20260504045129 | 50 | 0 | 0.0 | 0.0 | 0.00 | 0.00 | 0.00 | 63 | 1018.5 |
| 20260504045028 | 50 | 0 | 0.0 | 0.0 | 0.00 | 0.00 | 0.00 | 63 | 1018.6 |
| 20260504044928 | 50 | 0 | 0.0 | 0.0 | 0.00 | 0.00 | 0.00 | 62 | 1018.6 |
| 20260504044829 | 50 | 0 | 0.0 | 0.0 | 0.00 | 0.00 | 0.00 | 62 | 1018.6 |
| 20260504044728 | 50 | 0 | 0.0 | 0.0 | 0.00 | 0.00 | 0.00 | 62 | 1018.4 |
| 20260504044629 | 50 | 0 | 0.0 | 0.0 | 0.00 | 0.00 | 0.00 | 56 | 1018.6 |
| 20260504044528 | 50 | 0 | 0.0 | 0.0 | 0.00 | 0.00 | 0.00 | 57 | 1018.5 |
| 20260504044428 | 50 | 0 | 0.0 | 0.0 | 0.00 | 0.00 | 0.00 | 55 | 1018.4 |
| 20260504044329 | 50 | 0 | 0.0 | 0.0 | 0.00 | 0.00 | 0.00 | 55 | 1018.6 |
| 20260504044228 | 50 | 0 | 0.0 | 0.0 | 0.00 | 0.00 | 0.00 | 54 | 1018.6 |
| 20260504044129 | 50 | 0 | 0.0 | 0.0 | 0.00 | 0.00 | 0.00 | 53 | 1018.5 |
| 20260504044028 | 50 | 0 | 0.0 | 0.0 | 0.00 | 0.00 | 0.00 | 56 | 1018.5 |
| 20260504043928 | 50 | 0 | 0.0 | 0.0 | 0.00 | 0.00 | 0.00 | 56 | 1018.5 |
| 20260504043828 | 50 | 0 | 0.0 | 0.0 | 0.00 | 0.00 | 0.00 | 55 | 1018.6 |
| 20260504043728 | 50 | 0 | 0.0 | 0.0 | 0.00 | 0.00 | 0.00 | 55 | 1018.6 |
| 20260504043629 | 50 | 0 | 0.0 | 0.0 | 0.00 | 0.00 | 0.00 | 54 | 1018.5 |
| 20260504043528 | 50 | 0 | 0.0 | 0.0 | 0.00 | 0.00 | 0.00 | 54 | 1018.4 |
| 20260504043428 | 50 | 0 | 0.0 | 0.0 | 0.00 | 0.00 | 0.00 | 54 | 1018.6 |
| 20260504043328 | 50 | 0 | 0.0 | 0.0 | 0.00 | 0.00 | 0.00 | 55 | 1018.7 |
| 20260504043228 | 50 | 0 | 0.0 | 0.0 | 0.00 | 0.00 | 0.00 | 55 | 1018.6 |
| 20260504043127 | 50 | 0 | 0.0 | 0.0 | 0.00 | 0.00 | 0.00 | 53 | 1018.5 |
| 20260504043028 | 50 | 0 | 0.0 | 0.0 | 0.00 | 0.00 | 0.00 | 54 | 1018.5 |
| 20260504042928 | 50 | 0 | 0.0 | 0.0 | 0.00 | 0.00 | 0.00 | 53 | 1018.5 |
| 20260504042827 | 50 | 0 | 0.0 | 0.0 | 0.00 | 0.00 | 0.00 | 56 | 1018.6 |
| 20260504042728 | 50 | 0 | 0.0 | 0.0 | 0.00 | 0.00 | 0.00 | 55 | 1018.7 |
| 20260504042627 | 50 | 0 | 0.0 | 0.0 | 0.00 | 0.00 | 0.00 | 54 | 1018.7 |
| 20260504042527 | 50 | 0 | 0.0 | 0.0 | 0.00 | 0.00 | 0.00 | 54 | 1018.5 |
| 20260504042428 | 50 | 0 | 0.0 | 0.0 | 0.00 | 0.00 | 0.00 | 55 | 1018.5 |
| 20260504042327 | 50 | 0 | 0.0 | 0.0 | 0.00 | 0.00 | 0.00 | 54 | 1018.6 |
| 20260504042227 | 50 | 0 | 0.0 | 0.0 | 0.00 | 0.00 | 0.00 | 54 | 1018.6 |
| 20260504042127 | 50 | 0 | 0.0 | 0.0 | 0.00 | 0.00 | 0.00 | 54 | 1018.5 |
| 20260504042027 | 50 | 0 | 0.0 | 0.0 | 0.00 | 0.00 | 0.00 | 55 | 1018.6 |
| 20260504041928 | 50 | 0 | 0.0 | 0.0 | 0.00 | 0.00 | 0.00 | 54 | 1018.6 |
| 20260504041827 | 49 | 0 | 0.0 | 0.0 | 0.00 | 0.00 | 0.00 | 55 | 1018.5 |
| 20260504041727 | 49 | 0 | 0.0 | 0.0 | 0.00 | 0.00 | 0.00 | 55 | 1018.4 |
| 20260504041627 | 49 | 0 | 0.0 | 0.0 | 0.00 | 0.00 | 0.00 | 56 | 1018.5 |
| 20260504041527 | 49 | 0 | 0.0 | 0.0 | 0.00 | 0.00 | 0.00 | 56 | 1018.4 |
| 20260504041427 | 49 | 0 | 0.0 | 0.0 | 0.00 | 0.00 | 0.00 | 54 | 1018.4 |
| 20260504041327 | 49 | 0 | 0.0 | 0.0 | 0.00 | 0.00 | 0.00 | 56 | 1018.5 |
| 20260504041227 | 49 | 0 | 0.0 | 0.0 | 0.00 | 0.00 | 0.00 | 55 | 1018.4 |
| 20260504041127 | 49 | 0 | 0.0 | 0.0 | 0.00 | 0.00 | 0.00 | 56 | 1018.5 |
| 20260504041027 | 49 | 0 | 0.0 | 0.0 | 0.00 | 0.00 | 0.00 | 56 | 1018.6 |
| 20260504040926 | 49 | 0 | 0.0 | 0.0 | 0.00 | 0.00 | 0.00 | 54 | 1018.5 |
| 20260504040827 | 49 | 0 | 0.0 | 0.0 | 0.00 | 0.00 | 0.00 | 55 | 1018.7 |
| 20260504040727 | 49 | 0 | 0.0 | 0.0 | 0.00 | 0.00 | 0.00 | 55 | 1018.5 |
| 20260504040626 | 49 | 0 | 0.0 | 0.0 | 0.00 | 0.00 | 0.00 | 56 | 1018.5 |
| 20260504040527 | 49 | 0 | 0.0 | 0.0 | 0.00 | 0.00 | 0.00 | 56 | 1018.5 |
| 20260504040426 | 50 | 0 | 0.0 | 0.0 | 0.00 | 0.00 | 0.00 | 55 | 1018.5 |
| 20260504040327 | 50 | 0 | 0.0 | 0.0 | 0.00 | 0.00 | 0.00 | 55 | 1018.5 |
| 20260504040226 | 50 | 0 | 0.0 | 0.0 | 0.00 | 0.00 | 0.00 | 54 | 1018.5 |
| 20260504040126 | 49 | 0 | 0.0 | 0.0 | 0.00 | 0.00 | 0.00 | 54 | 1018.5 |
| 20260504040027 | 49 | 0 | 0.0 | 0.0 | 0.00 | 0.00 | 0.00 | 55 | 1018.5 |
| 20260504035926 | 49 | 0 | 0.0 | 0.0 | 0.00 | 0.00 | 0.00 | 56 | 1018.5 |
| 20260504035826 | 49 | 0 | 0.0 | 0.0 | 0.00 | 0.00 | 0.00 | 56 | 1018.5 |
| 20260504035727 | 49 | 0 | 0.0 | 0.0 | 0.00 | 0.00 | 0.00 | 56 | 1018.6 |
| 20260504035626 | 49 | 0 | 0.0 | 0.0 | 0.00 | 0.00 | 0.00 | 56 | 1018.4 |
| 20260504035526 | 49 | 0 | 0.0 | 0.0 | 0.00 | 0.00 | 0.00 | 56 | 1018.4 |
| 20260504035426 | 49 | 0 | 0.0 | 0.0 | 0.00 | 0.00 | 0.00 | 56 | 1018.6 |
| 20260504035326 | 49 | 0 | 0.0 | 0.0 | 0.00 | 0.00 | 0.00 | 58 | 1018.5 |
| 20260504035226 | 49 | 0 | 0.0 | 0.0 | 0.00 | 0.00 | 0.00 | 58 | 1018.6 |
| 20260504035126 | 49 | 0 | 0.0 | 0.0 | 0.00 | 0.00 | 0.00 | 57 | 1018.6 |
| 20260504035026 | 49 | 0 | 0.0 | 0.0 | 0.00 | 0.00 | 0.00 | 56 | 1018.5 |
| 20260504034926 | 49 | 0 | 0.0 | 0.0 | 0.00 | 0.00 | 0.00 | 57 | 1018.4 |
| 20260504034826 | 49 | 0 | 0.0 | 0.0 | 0.00 | 0.00 | 0.00 | 59 | 1018.6 |
| 20260504034726 | 49 | 0 | 0.0 | 0.0 | 0.00 | 0.00 | 0.00 | 60 | 1018.7 |
| 20260504034626 | 49 | 0 | 0.0 | 0.0 | 0.00 | 0.00 | 0.00 | 60 | 1018.7 |
| 20260504034526 | 49 | 0 | 0.0 | 0.0 | 0.00 | 0.00 | 0.00 | 59 | 1018.6 |
| 20260504034425 | 49 | 0 | 0.0 | 0.0 | 0.00 | 0.00 | 0.00 | 60 | 1018.6 |
| 20260504034326 | 49 | 0 | 0.0 | 0.0 | 0.00 | 0.00 | 0.00 | 60 | 1018.7 |
| 20260504034226 | 49 | 0 | 0.0 | 0.0 | 0.00 | 0.00 | 0.00 | 60 | 1018.5 |
| 20260504034125 | 50 | 0 | 0.0 | 0.0 | 0.00 | 0.00 | 0.00 | 59 | 1018.7 |
| 20260504034026 | 50 | 0 | 0.0 | 0.0 | 0.00 | 0.00 | 0.00 | 59 | 1018.7 |
| 20260504033926 | 50 | 0 | 0.0 | 0.0 | 0.00 | 0.00 | 0.00 | 58 | 1018.7 |
| 20260504033825 | 50 | 0 | 0.0 | 0.0 | 0.00 | 0.00 | 0.00 | 58 | 1018.7 |
| 20260504033725 | 50 | 0 | 0.0 | 0.0 | 0.00 | 0.00 | 0.00 | 60 | 1018.8 |
| 20260504033626 | 50 | 0 | 0.0 | 0.0 | 0.00 | 0.00 | 0.00 | 58 | 1018.7 |
| 20260504033525 | 50 | 0 | 0.0 | 0.0 | 0.00 | 0.00 | 0.00 | 58 | 1018.6 |
| 20260504033425 | 50 | 0 | 0.0 | 0.0 | 0.00 | 0.00 | 0.00 | 56 | 1018.6 |
| 20260504033325 | 50 | 0 | 0.0 | 0.0 | 0.00 | 0.00 | 0.00 | 52 | 1018.5 |
| 20260504033225 | 50 | 0 | 0.0 | 0.0 | 0.00 | 0.00 | 0.00 | 53 | 1018.5 |
| 20260504033125 | 50 | 0 | 0.0 | 0.0 | 0.00 | 0.00 | 0.00 | 54 | 1018.4 |
| 20260504033025 | 50 | 0 | 0.0 | 0.0 | 0.00 | 0.00 | 0.00 | 53 | 1018.4 |
| 20260504032925 | 50 | 0 | 0.0 | 0.0 | 0.00 | 0.00 | 0.00 | 54 | 1018.4 |
| 20260504032825 | 50 | 0 | 0.0 | 0.0 | 0.00 | 0.00 | 0.00 | 54 | 1018.5 |
| 20260504032725 | 50 | 0 | 0.0 | 0.0 | 0.00 | 0.00 | 0.00 | 53 | 1018.4 |
| 20260504032625 | 50 | 0 | 0.0 | 0.0 | 0.00 | 0.00 | 0.00 | 53 | 1018.5 |
| 20260504032525 | 50 | 0 | 0.0 | 0.0 | 0.00 | 0.00 | 0.00 | 53 | 1018.5 |
| 20260504032425 | 50 | 0 | 0.0 | 0.0 | 0.00 | 0.00 | 0.00 | 53 | 1018.6 |
| 20260504032324 | 50 | 0 | 0.0 | 0.0 | 0.00 | 0.00 | 0.00 | 54 | 1018.6 |
| 20260504032225 | 50 | 0 | 0.0 | 0.0 | 0.00 | 0.00 | 0.00 | 55 | 1018.7 |
| 20260504032124 | 50 | 0 | 0.0 | 0.0 | 0.00 | 0.00 | 0.00 | 55 | 1018.5 |
| 20260504032025 | 51 | 0 | 0.0 | 0.0 | 0.00 | 0.00 | 0.00 | 59 | 1018.5 |
| 20260504031925 | 51 | 0 | 0.0 | 0.0 | 0.00 | 0.00 | 0.00 | 58 | 1018.5 |
| 20260504031824 | 51 | 0 | 0.0 | 0.0 | 0.00 | 0.00 | 0.00 | 58 | 1018.6 |
| 20260504031725 | 51 | 0 | 0.0 | 0.0 | 0.00 | 0.00 | 0.00 | 54 | 1018.6 |
| 20260504031624 | 51 | 0 | 0.0 | 0.0 | 0.00 | 0.00 | 0.00 | 54 | 1018.5 |
| 20260504031525 | 51 | 0 | 0.0 | 0.0 | 0.00 | 0.00 | 0.00 | 51 | 1018.5 |
| 20260504031424 | 51 | 0 | 0.0 | 0.0 | 0.00 | 0.00 | 0.00 | 51 | 1018.4 |
| 20260504031325 | 51 | 0 | 0.0 | 0.0 | 0.00 | 0.00 | 0.00 | 52 | 1018.6 |
| 20260504031224 | 51 | 0 | 0.0 | 0.0 | 0.00 | 0.00 | 0.00 | 51 | 1018.5 |
| 20260504031124 | 51 | 0 | 0.0 | 0.0 | 0.00 | 0.00 | 0.00 | 51 | 1018.4 |
| 20260504031024 | 50 | 0 | 0.0 | 0.0 | 0.00 | 0.00 | 0.00 | 51 | 1018.7 |
| 20260504030924 | 50 | 0 | 0.0 | 0.0 | 0.00 | 0.00 | 0.00 | 52 | 1018.6 |
| 20260504030824 | 50 | 0 | 0.0 | 0.0 | 0.00 | 0.00 | 0.00 | 51 | 1018.6 |
| 20260504030724 | 50 | 0 | 0.0 | 0.0 | 0.00 | 0.00 | 0.00 | 53 | 1018.7 |
| 20260504030624 | 50 | 0 | 0.0 | 0.0 | 0.00 | 0.00 | 0.00 | 53 | 1018.5 |
| 20260504030524 | 51 | 0 | 0.0 | 0.0 | 0.00 | 0.00 | 0.00 | 53 | 1018.7 |
| 20260504030424 | 51 | 0 | 0.0 | 0.0 | 0.00 | 0.00 | 0.00 | 52 | 1018.8 |
| 20260504030323 | 51 | 0 | 0.0 | 0.0 | 0.00 | 0.00 | 0.00 | 52 | 1018.8 |
| 20260504030224 | 51 | 0 | 0.0 | 0.0 | 0.00 | 0.00 | 0.00 | 51 | 1018.5 |
| 20260504030123 | 51 | 0 | 0.0 | 0.0 | 0.00 | 0.00 | 0.00 | 52 | 1018.7 |
| 20260504030024 | 51 | 0 | 0.0 | 0.0 | 0.00 | 0.00 | 0.00 | 52 | 1018.6 |
| 20260504025924 | 51 | 0 | 0.0 | 0.0 | 0.00 | 0.00 | 0.00 | 52 | 1018.6 |
| 20260504025823 | 51 | 0 | 0.0 | 0.0 | 0.00 | 0.00 | 0.00 | 51 | 1018.5 |
| 20260504025724 | 50 | 0 | 0.0 | 0.0 | 0.00 | 0.00 | 0.00 | 52 | 1018.6 |
| 20260504025623 | 50 | 0 | 0.0 | 0.0 | 0.00 | 0.00 | 0.00 | 52 | 1018.6 |
| 20260504025523 | 50 | 0 | 0.0 | 0.0 | 0.00 | 0.00 | 0.00 | 54 | 1018.8 |
| 20260504025424 | 50 | 0 | 0.0 | 0.0 | 0.00 | 0.00 | 0.00 | 58 | 1018.5 |
| 20260504025323 | 50 | 0 | 0.0 | 0.0 | 0.00 | 0.00 | 0.00 | 58 | 1018.7 |
| 20260504025223 | 50 | 0 | 0.0 | 0.0 | 0.00 | 0.00 | 0.00 | 58 | 1018.6 |
| 20260504025123 | 50 | 0 | 0.0 | 0.0 | 0.00 | 0.00 | 0.00 | 56 | 1018.7 |
| 20260504025023 | 50 | 0 | 0.0 | 0.0 | 0.00 | 0.00 | 0.00 | 52 | 1018.6 |
| 20260504024923 | 50 | 0 | 0.0 | 0.0 | 0.00 | 0.00 | 0.00 | 52 | 1018.6 |
| 20260504024823 | 50 | 0 | 0.0 | 0.0 | 0.00 | 0.00 | 0.00 | 53 | 1018.6 |
| 20260504024723 | 50 | 0 | 0.0 | 0.0 | 0.00 | 0.00 | 0.00 | 52 | 1018.8 |
| 20260504024623 | 50 | 0 | 0.0 | 0.0 | 0.00 | 0.00 | 0.00 | 53 | 1018.6 |
| 20260504024523 | 50 | 0 | 0.0 | 0.0 | 0.00 | 0.00 | 0.00 | 54 | 1018.6 |
| 20260504024422 | 50 | 0 | 0.0 | 0.0 | 0.00 | 0.00 | 0.00 | 54 | 1018.6 |
| 20260504024323 | 50 | 0 | 0.0 | 0.0 | 0.00 | 0.00 | 0.00 | 56 | 1018.6 |
| 20260504024223 | 50 | 0 | 0.0 | 0.0 | 0.00 | 0.00 | 0.00 | 57 | 1018.7 |
| 20260504024123 | 50 | 0 | 0.0 | 0.0 | 0.00 | 0.00 | 0.00 | 57 | 1018.6 |
| 20260504024023 | 50 | 0 | 0.0 | 0.0 | 0.00 | 0.00 | 0.00 | 56 | 1018.7 |
| 20260504023922 | 50 | 0 | 0.0 | 0.0 | 0.00 | 0.00 | 0.00 | 56 | 1018.7 |
| 20260504023823 | 50 | 0 | 0.0 | 0.0 | 0.00 | 0.00 | 0.00 | 56 | 1018.7 |
| 20260504023722 | 50 | 0 | 0.0 | 0.0 | 0.00 | 0.00 | 0.00 | 56 | 1018.7 |
| 20260504023623 | 50 | 0 | 0.0 | 0.0 | 0.00 | 0.00 | 0.00 | 56 | 1018.6 |
| 20260504023523 | 50 | 0 | 0.0 | 0.0 | 0.00 | 0.00 | 0.00 | 55 | 1018.6 |
| 20260504023422 | 50 | 0 | 0.0 | 0.0 | 0.00 | 0.00 | 0.00 | 54 | 1018.7 |
| 20260504023323 | 50 | 0 | 0.0 | 0.0 | 0.00 | 0.00 | 0.00 | 54 | 1018.6 |
| 20260504023222 | 50 | 0 | 0.0 | 0.0 | 0.00 | 0.00 | 0.00 | 54 | 1018.7 |
| 20260504023123 | 50 | 0 | 0.0 | 0.0 | 0.00 | 0.00 | 0.00 | 53 | 1018.8 |
| 20260504023022 | 50 | 0 | 0.0 | 0.0 | 0.00 | 0.00 | 0.00 | 54 | 1018.7 |
| 20260504022923 | 50 | 0 | 0.0 | 0.0 | 0.00 | 0.00 | 0.00 | 54 | 1018.7 |
| 20260504022822 | 50 | 0 | 0.0 | 0.0 | 0.00 | 0.00 | 0.00 | 55 | 1018.7 |
| 20260504022719 | 50 | 0 | 0.0 | 0.0 | 0.00 | 0.00 | 0.00 | 56 | 1018.6 |
| 20260504022614 | 50 | 0 | 0.0 | 0.0 | 0.00 | 0.00 | 0.00 | 59 | 1018.6 |
| 20260504022513 | 50 | 0 | 0.0 | 0.0 | 0.00 | 0.00 | 0.00 | 58 | 1018.7 |
| 20260504022414 | 50 | 0 | 0.0 | 0.0 | 0.00 | 0.00 | 0.00 | 57 | 1018.5 |
| 20260504022309 | 50 | 0 | 0.0 | 0.0 | 0.00 | 0.00 | 0.00 | 54 | 1018.5 |
| 20260504022206 | 50 | 0 | 0.0 | 0.0 | 0.00 | 0.00 | 0.00 | 56 | 1018.4 |
| 20260504022106 | 50 | 0 | 0.0 | 0.0 | 0.00 | 0.00 | 0.00 | 57 | 1018.6 |
| 20260504022006 | 50 | 0 | 0.0 | 0.0 | 0.00 | 0.00 | 0.00 | 55 | 1018.5 |
| 20260504021905 | 50 | 0 | 0.0 | 0.0 | 0.00 | 0.00 | 0.00 | 57 | 1018.6 |
| 20260504021806 | 50 | 0 | 0.0 | 0.0 | 0.00 | 0.00 | 0.00 | 55 | 1018.2 |
| 20260504021705 | 50 | 0 | 0.0 | 0.0 | 0.00 | 0.00 | 0.00 | 56 | 1018.5 |
| 20260504021606 | 50 | 0 | 0.0 | 0.0 | 0.00 | 0.00 | 0.00 | 54 | 1018.5 |
| 20260504021505 | 50 | 0 | 0.0 | 0.0 | 0.00 | 0.00 | 0.00 | 56 | 1018.5 |
| 20260504021405 | 50 | 0 | 0.0 | 0.0 | 0.00 | 0.00 | 0.00 | 56 | 1018.4 |
| 20260504021306 | 50 | 0 | 0.0 | 0.0 | 0.00 | 0.00 | 0.00 | 58 | 1018.4 |
| 20260504021205 | 50 | 0 | 0.0 | 0.0 | 0.00 | 0.00 | 0.00 | 55 | 1018.3 |
| 20260504021105 | 50 | 0 | 0.0 | 0.0 | 0.00 | 0.00 | 0.00 | 55 | 1018.5 |
| 20260504021005 | 50 | 0 | 0.0 | 0.0 | 0.00 | 0.00 | 0.00 | 54 | 1018.5 |
| 20260504020905 | 50 | 0 | 0.0 | 0.0 | 0.00 | 0.00 | 0.00 | 53 | 1018.2 |
| 20260504020806 | 50 | 0 | 0.0 | 0.0 | 0.00 | 0.00 | 0.00 | 55 | 1018.3 |
| 20260504020705 | 50 | 0 | 0.0 | 0.0 | 0.00 | 0.00 | 0.00 | 54 | 1018.4 |
| 20260504020605 | 50 | 0 | 0.0 | 0.0 | 0.00 | 0.00 | 0.00 | 54 | 1018.4 |
| 20260504020505 | 50 | 0 | 0.0 | 0.0 | 0.00 | 0.00 | 0.00 | 55 | 1018.4 |
| 20260504020405 | 50 | 0 | 0.0 | 0.0 | 0.00 | 0.00 | 0.00 | 55 | 1018.3 |
| 20260504020305 | 50 | 0 | 0.0 | 0.0 | 0.00 | 0.00 | 0.00 | 55 | 1018.4 |
| 20260504020205 | 50 | 0 | 0.0 | 0.0 | 0.00 | 0.00 | 0.00 | 55 | 1018.1 |
| 20260504020104 | 50 | 0 | 0.0 | 0.0 | 0.00 | 0.00 | 0.00 | 55 | 1018.2 |
| 20260504020005 | 50 | 0 | 0.0 | 0.0 | 0.00 | 0.00 | 0.00 | 55 | 1018.2 |
| 20260504015905 | 50 | 0 | 0.0 | 0.0 | 0.00 | 0.00 | 0.00 | 54 | 1018.1 |
| 20260504015804 | 50 | 0 | 0.0 | 0.0 | 0.00 | 0.00 | 0.00 | 56 | 1018.2 |
| 20260504015705 | 50 | 0 | 0.0 | 0.0 | 0.00 | 0.00 | 0.00 | 55 | 1018.2 |
| 20260504015604 | 50 | 0 | 0.0 | 0.0 | 0.00 | 0.00 | 0.00 | 55 | 1018.4 |
| 20260504015505 | 50 | 0 | 0.0 | 0.0 | 0.00 | 0.00 | 0.00 | 58 | 1018.0 |
| 20260504015404 | 50 | 0 | 0.0 | 0.0 | 0.00 | 0.00 | 0.00 | 59 | 1018.1 |
| 20260504015305 | 50 | 0 | 0.0 | 0.0 | 0.00 | 0.00 | 0.00 | 59 | 1018.2 |
| 20260504015205 | 50 | 0 | 0.0 | 0.0 | 0.00 | 0.00 | 0.00 | 56 | 1018.1 |
| 20260504015104 | 50 | 0 | 0.0 | 0.0 | 0.00 | 0.00 | 0.00 | 55 | 1018.1 |
| 20260504015005 | 50 | 0 | 0.0 | 0.0 | 0.00 | 0.00 | 0.00 | 54 | 1018.1 |
| 20260504014904 | 50 | 0 | 0.0 | 0.0 | 0.00 | 0.00 | 0.00 | 54 | 1018.0 |
| 20260504014805 | 50 | 0 | 0.0 | 0.0 | 0.00 | 0.00 | 0.00 | 54 | 1018.1 |
| 20260504014704 | 50 | 0 | 0.0 | 0.0 | 0.00 | 0.00 | 0.00 | 54 | 1018.0 |
| 20260504014604 | 50 | 0 | 0.0 | 0.0 | 0.00 | 0.00 | 0.00 | 55 | 1018.1 |
| 20260504014505 | 50 | 0 | 0.0 | 0.0 | 0.00 | 0.00 | 0.00 | 57 | 1018.2 |
| 20260504014404 | 50 | 0 | 0.0 | 0.0 | 0.00 | 0.00 | 0.00 | 58 | 1018.0 |
| 20260504014304 | 50 | 0 | 0.0 | 0.0 | 0.00 | 0.00 | 0.00 | 58 | 1018.0 |
| 20260504014204 | 50 | 0 | 0.0 | 0.0 | 0.00 | 0.00 | 0.00 | 59 | 1018.0 |
| 20260504014104 | 50 | 0 | 0.0 | 0.0 | 0.00 | 0.00 | 0.00 | 58 | 1017.9 |
| 20260504014004 | 50 | 0 | 0.0 | 0.0 | 0.00 | 0.00 | 0.00 | 58 | 1018.2 |
| 20260504013904 | 50 | 0 | 0.0 | 0.0 | 0.00 | 0.00 | 0.00 | 58 | 1018.3 |
| 20260504013804 | 50 | 0 | 0.0 | 0.0 | 0.00 | 0.00 | 0.00 | 59 | 1018.0 |
| 20260504013704 | 50 | 0 | 0.0 | 0.0 | 0.00 | 0.00 | 0.00 | 58 | 1017.9 |
| 20260504013604 | 50 | 0 | 0.0 | 0.0 | 0.00 | 0.00 | 0.00 | 57 | 1017.8 |
| 20260504013504 | 50 | 0 | 0.0 | 0.0 | 0.00 | 0.00 | 0.00 | 58 | 1018.0 |
| 20260504013403 | 50 | 0 | 0.0 | 0.0 | 0.00 | 0.00 | 0.00 | 58 | 1017.9 |
| 20260504013304 | 50 | 0 | 0.0 | 0.0 | 0.00 | 0.00 | 0.00 | 58 | 1017.9 |
| 20260504013204 | 50 | 0 | 0.0 | 0.0 | 0.00 | 0.00 | 0.00 | 57 | 1018.0 |
| 20260504013103 | 50 | 0 | 0.0 | 0.0 | 0.00 | 0.00 | 0.00 | 57 | 1018.0 |
| 20260504013004 | 50 | 0 | 0.0 | 0.0 | 0.00 | 0.00 | 0.00 | 57 | 1018.1 |
| 20260504012903 | 50 | 0 | 0.0 | 0.0 | 0.00 | 0.00 | 0.00 | 56 | 1017.9 |
| 20260504012803 | 50 | 0 | 0.0 | 0.0 | 0.00 | 0.00 | 0.00 | 56 | 1018.0 |
| 20260504012704 | 50 | 0 | 0.0 | 0.0 | 0.00 | 0.00 | 0.00 | 56 | 1018.0 |
| 20260504012603 | 50 | 0 | 0.0 | 0.0 | 0.00 | 0.00 | 0.00 | 57 | 1017.8 |
| 20260504012503 | 50 | 0 | 0.0 | 0.0 | 0.00 | 0.00 | 0.00 | 57 | 1017.9 |
| 20260504012404 | 50 | 0 | 0.0 | 0.0 | 0.00 | 0.00 | 0.00 | 56 | 1018.0 |
| 20260504012304 | 51 | 0 | 0.0 | 0.0 | 0.00 | 0.00 | 0.00 | 56 | 1017.9 |
| 20260504012203 | 50 | 0 | 0.0 | 0.0 | 0.00 | 0.00 | 0.00 | 56 | 1017.8 |
| 20260504012103 | 50 | 0 | 0.0 | 0.0 | 0.00 | 0.00 | 0.00 | 56 | 1017.9 |
| 20260504012003 | 50 | 0 | 0.0 | 0.0 | 0.00 | 0.00 | 0.00 | 56 | 1017.8 |
| 20260504011903 | 50 | 0 | 0.0 | 0.0 | 0.00 | 0.00 | 0.00 | 55 | 1017.8 |
| 20260504011803 | 51 | 0 | 0.0 | 0.0 | 0.00 | 0.00 | 0.00 | 57 | 1017.7 |
| 20260504011703 | 51 | 0 | 0.0 | 0.0 | 0.00 | 0.00 | 0.00 | 56 | 1017.7 |
| 20260504011603 | 51 | 0 | 0.0 | 0.0 | 0.00 | 0.00 | 0.00 | 56 | 1017.6 |
| 20260504011503 | 51 | 0 | 0.0 | 0.0 | 0.00 | 0.00 | 0.00 | 54 | 1017.7 |
| 20260504011403 | 51 | 0 | 0.0 | 0.0 | 0.00 | 0.00 | 0.00 | 54 | 1017.9 |
| 20260504011303 | 51 | 0 | 0.0 | 0.0 | 0.00 | 0.00 | 0.00 | 55 | 1017.6 |
| 20260504011202 | 51 | 0 | 0.0 | 0.0 | 0.00 | 0.00 | 0.00 | 54 | 1017.7 |
| 20260504011103 | 51 | 0 | 0.0 | 0.0 | 0.00 | 0.00 | 0.00 | 54 | 1017.9 |
| 20260504011003 | 52 | 0 | 0.0 | 0.0 | 0.00 | 0.00 | 0.00 | 54 | 1017.8 |
| 20260504010902 | 52 | 0 | 0.0 | 0.0 | 0.00 | 0.00 | 0.00 | 55 | 1017.8 |
| 20260504010803 | 52 | 0 | 0.0 | 0.0 | 0.00 | 0.00 | 0.00 | 54 | 1017.8 |
| 20260504010702 | 52 | 0 | 0.0 | 0.0 | 0.00 | 0.00 | 0.00 | 53 | 1017.7 |
| 20260504010603 | 52 | 0 | 0.0 | 0.0 | 0.00 | 0.00 | 0.00 | 53 | 1017.8 |
| 20260504010503 | 52 | 0 | 0.0 | 0.0 | 0.00 | 0.00 | 0.00 | 52 | 1017.8 |
| 20260504010402 | 52 | 0 | 0.0 | 0.0 | 0.00 | 0.00 | 0.00 | 51 | 1017.6 |
| 20260504010303 | 52 | 0 | 0.0 | 0.0 | 0.00 | 0.00 | 0.00 | 51 | 1017.7 |
| 20260504010203 | 52 | 0 | 0.0 | 0.0 | 0.00 | 0.00 | 0.00 | 51 | 1017.8 |
| 20260504010003 | 52 | 0 | 0.0 | 0.0 | 0.00 | 0.00 | 0.00 | 49 | 1017.7 |
| 20260504005902 | 52 | 0 | 0.0 | 0.0 | 0.00 | 0.00 | 0.00 | 50 | 1017.6 |
| 20260504005802 | 52 | 0 | 0.0 | 0.0 | 0.00 | 0.00 | 0.00 | 51 | 1017.7 |
| 20260504005703 | 52 | 0 | 0.0 | 0.0 | 0.00 | 0.00 | 0.00 | 52 | 1017.7 |
| 20260504005602 | 52 | 0 | 0.0 | 0.0 | 0.00 | 0.00 | 0.00 | 53 | 1017.7 |
| 20260504005503 | 52 | 0 | 0.0 | 0.0 | 0.00 | 0.00 | 0.00 | 52 | 1017.8 |
| 20260504005402 | 53 | 0 | 0.0 | 0.0 | 0.00 | 0.00 | 0.00 | 51 | 1017.8 |
| 20260504005304 | 53 | 0 | 0.0 | 0.0 | 0.00 | 0.00 | 0.00 | 51 | 1017.7 |
| 20260504005203 | 53 | 0 | 0.0 | 0.0 | 0.00 | 0.00 | 0.00 | 52 | 1017.6 |
| 20260504005102 | 53 | 0 | 0.0 | 0.0 | 0.00 | 0.00 | 0.00 | 52 | 1017.6 |
| 20260504005002 | 53 | 0 | 0.0 | 0.0 | 0.00 | 0.00 | 0.00 | 52 | 1017.7 |
| 20260504004903 | 53 | 0 | 0.0 | 0.0 | 0.00 | 0.00 | 0.00 | 53 | 1017.9 |
| 20260504004802 | 53 | 0 | 0.0 | 0.0 | 0.00 | 0.00 | 0.00 | 52 | 1017.8 |
| 20260504004702 | 53 | 0 | 0.0 | 0.0 | 0.00 | 0.00 | 0.00 | 50 | 1017.7 |
| 20260504004602 | 53 | 0 | 0.0 | 0.0 | 0.00 | 0.00 | 0.00 | 50 | 1017.7 |
| 20260504004502 | 53 | 0 | 0.0 | 0.0 | 0.00 | 0.00 | 0.00 | 52 | 1017.7 |
| 20260504004402 | 53 | 0 | 0.0 | 0.0 | 0.00 | 0.00 | 0.00 | 53 | 1017.6 |
| 20260504004302 | 53 | 0 | 0.0 | 0.0 | 0.00 | 0.00 | 0.00 | 50 | 1017.8 |
| 20260504004202 | 53 | 0 | 0.0 | 0.0 | 0.00 | 0.00 | 0.00 | 51 | 1017.9 |
| 20260504004102 | 53 | 0 | 0.0 | 0.0 | 0.00 | 0.00 | 0.00 | 52 | 1017.7 |
| 20260504004001 | 53 | 0 | 0.0 | 0.0 | 0.00 | 0.00 | 0.00 | 51 | 1017.8 |
| 20260504003902 | 53 | 0 | 0.0 | 0.0 | 0.00 | 0.00 | 0.00 | 52 | 1017.6 |
| 20260504003802 | 53 | 0 | 0.0 | 0.0 | 0.00 | 0.00 | 0.00 | 50 | 1017.7 |
| 20260504003702 | 53 | 0 | 0.0 | 0.0 | 0.00 | 0.00 | 0.00 | 49 | 1017.8 |
| 20260504003602 | 53 | 0 | 0.0 | 0.0 | 0.00 | 0.00 | 0.00 | 49 | 1017.7 |
| 20260504003501 | 53 | 0 | 0.0 | 0.0 | 0.00 | 0.00 | 0.00 | 49 | 1017.8 |
| 20260504003402 | 53 | 0 | 0.0 | 0.0 | 0.00 | 0.00 | 0.00 | 48 | 1017.8 |
| 20260504003301 | 53 | 0 | 0.0 | 0.0 | 0.00 | 0.00 | 0.00 | 48 | 1017.6 |
| 20260504003202 | 54 | 0 | 0.0 | 0.0 | 0.00 | 0.00 | 0.00 | 47 | 1017.7 |
| 20260504003102 | 54 | 0 | 0.0 | 0.0 | 0.00 | 0.00 | 0.00 | 47 | 1017.8 |
| 20260504003001 | 54 | 0 | 0.0 | 0.0 | 0.00 | 0.00 | 0.00 | 47 | 1017.6 |
| 20260504002902 | 54 | 0 | 0.0 | 0.0 | 0.00 | 0.00 | 0.00 | 46 | 1017.8 |
| 20260504002801 | 54 | 0 | 0.0 | 0.0 | 0.00 | 0.00 | 0.00 | 46 | 1017.8 |
| 20260504002702 | 54 | 0 | 0.0 | 0.0 | 0.00 | 0.00 | 0.00 | 45 | 1017.7 |
| 20260504002601 | 54 | 0 | 0.0 | 0.0 | 0.00 | 0.00 | 0.00 | 46 | 1017.8 |
| 20260504002502 | 54 | 0 | 0.0 | 0.0 | 0.00 | 0.00 | 0.00 | 46 | 1017.7 |
| 20260504002401 | 54 | 0 | 0.0 | 0.0 | 0.00 | 0.00 | 0.00 | 46 | 1017.8 |
| 20260504002303 | 54 | 0 | 0.0 | 0.0 | 0.00 | 0.00 | 0.00 | 47 | 1017.8 |
| 20260504002201 | 54 | 0 | 0.0 | 0.0 | 0.00 | 0.00 | 0.00 | 47 | 1017.9 |
| 20260504002101 | 54 | 0 | 0.0 | 0.0 | 0.00 | 0.00 | 0.00 | 47 | 1017.9 |
| 20260504002001 | 54 | 0 | 0.0 | 0.0 | 0.00 | 0.00 | 0.00 | 48 | 1017.9 |
| 20260504001901 | 54 | 0 | 0.0 | 0.0 | 0.00 | 0.00 | 0.00 | 47 | 1017.8 |
| 20260504001802 | 55 | 0 | 0.0 | 0.0 | 0.00 | 0.00 | 0.00 | 48 | 1017.9 |
| 20260504001701 | 55 | 0 | 0.0 | 0.0 | 0.00 | 0.00 | 0.00 | 48 | 1017.8 |
| 20260504001601 | 55 | 0 | 0.0 | 0.0 | 0.00 | 0.00 | 0.00 | 48 | 1017.8 |
| 20260504001501 | 55 | 0 | 0.0 | 0.0 | 0.00 | 0.00 | 0.00 | 48 | 1017.7 |
| 20260504001401 | 55 | 0 | 0.0 | 0.0 | 0.00 | 0.00 | 0.00 | 47 | 1017.7 |
| 20260504001302 | 55 | 0 | 0.0 | 0.0 | 0.00 | 0.00 | 0.00 | 47 | 1017.8 |
| 20260504001201 | 55 | 0 | 0.0 | 0.0 | 0.00 | 0.00 | 0.00 | 47 | 1017.7 |
| 20260504001101 | 55 | 0 | 0.0 | 0.0 | 0.00 | 0.00 | 0.00 | 47 | 1017.8 |
| 20260504001001 | 55 | 0 | 0.0 | 0.0 | 0.00 | 0.00 | 0.00 | 47 | 1017.8 |
| 20260504000901 | 55 | 0 | 0.0 | 0.0 | 0.00 | 0.00 | 0.00 | 46 | 1017.7 |
| 20260504000801 | 55 | 0 | 0.0 | 0.0 | 0.00 | 0.00 | 0.00 | 45 | 1017.8 |
| 20260504000701 | 55 | 0 | 0.0 | 0.0 | 0.00 | 0.00 | 0.00 | 44 | 1017.6 |
| 20260504000601 | 55 | 0 | 0.0 | 0.0 | 0.00 | 0.00 | 0.00 | 44 | 1017.8 |
| 20260504000500 | 55 | 0 | 0.0 | 0.0 | 0.00 | 0.00 | 0.00 | 45 | 1017.9 |
| 20260504000401 | 56 | 0 | 0.0 | 0.0 | 0.00 | 0.00 | 0.00 | 44 | 1017.7 |
| 20260504000300 | 56 | 0 | 0.0 | 0.0 | 0.00 | 0.00 | 0.00 | 45 | 1017.7 |
| 20260504000200 | 56 | 0 | 0.0 | 0.0 | 0.00 | 0.00 | 0.00 | 46 | 1017.8 |
| 20260504000101 | 56 | 0 | 0.0 | 0.0 | 0.00 | 0.00 | 0.00 | 45 | 1017.6 |
| 20260504000001 | 56 | 0 | 0.0 | 0.0 | 0.00 | 0.00 | 0.00 | 45 | 1017.9 |
| 20260503235900 | 56 | 0 | 0.0 | 0.0 | 0.00 | 0.00 | 0.00 | 46 | 1017.8 |
| 20260503235800 | 56 | 0 | 0.0 | 0.0 | 0.00 | 0.00 | 0.00 | 45 | 1017.7 |
| 20260503235700 | 56 | 0 | 0.0 | 0.0 | 0.00 | 0.00 | 0.00 | 45 | 1017.8 |
| 20260503235600 | 56 | 0 | 0.0 | 0.0 | 0.00 | 0.00 | 0.00 | 46 | 1017.6 |
| 20260503235500 | 56 | 0 | 0.0 | 0.0 | 0.00 | 0.00 | 0.00 | 46 | 1017.7 |
| 20260503235400 | 56 | 0 | 0.0 | 0.0 | 0.00 | 0.00 | 0.00 | 43 | 1017.7 |
| 20260503235300 | 57 | 0 | 0.0 | 0.0 | 0.00 | 0.00 | 0.00 | 42 | 1017.7 |
| 20260503235200 | 57 | 0 | 0.0 | 0.0 | 0.00 | 0.00 | 0.00 | 42 | 1017.7 |
| 20260503235100 | 57 | 0 | 0.0 | 0.0 | 0.00 | 0.00 | 0.00 | 42 | 1017.7 |
| 20260503234959 | 57 | 0 | 0.0 | 0.0 | 0.00 | 0.00 | 0.00 | 42 | 1017.6 |
| 20260503234900 | 57 | 0 | 0.0 | 0.0 | 0.00 | 0.00 | 0.00 | 41 | 1017.7 |
| 20260503234800 | 57 | 0 | 0.0 | 0.0 | 0.00 | 0.00 | 0.00 | 42 | 1017.7 |
| 20260503234659 | 57 | 0 | 0.0 | 0.0 | 0.00 | 0.00 | 0.00 | 42 | 1017.7 |
| 20260503234600 | 57 | 0 | 0.0 | 0.0 | 0.00 | 0.00 | 0.00 | 42 | 1017.7 |
| 20260503234459 | 57 | 0 | 0.0 | 0.0 | 0.00 | 0.00 | 0.00 | 42 | 1017.7 |
| 20260503234400 | 57 | 0 | 0.0 | 0.0 | 0.00 | 0.00 | 0.00 | 41 | 1017.6 |
| 20260503234300 | 58 | 0 | 0.0 | 0.0 | 0.00 | 0.00 | 0.00 | 41 | 1017.7 |
| 20260503234159 | 58 | 0 | 0.0 | 0.0 | 0.00 | 0.00 | 0.00 | 41 | 1017.5 |
| 20260503234100 | 58 | 0 | 0.0 | 0.0 | 0.00 | 0.00 | 0.00 | 40 | 1017.7 |
| 20260503233959 | 58 | 0 | 0.0 | 0.0 | 0.00 | 0.00 | 0.00 | 40 | 1017.6 |
| 20260503233900 | 58 | 0 | 0.0 | 0.0 | 0.00 | 0.00 | 0.00 | 41 | 1017.4 |
| 20260503233800 | 58 | 0 | 0.0 | 0.0 | 0.00 | 0.00 | 0.00 | 40 | 1017.6 |
| 20260503233659 | 58 | 0 | 0.0 | 0.0 | 0.00 | 0.00 | 0.00 | 40 | 1017.4 |
| 20260503233600 | 58 | 0 | 0.0 | 0.0 | 0.00 | 0.00 | 0.00 | 39 | 1017.6 |
| 20260503233459 | 58 | 0 | 0.0 | 0.0 | 0.00 | 0.00 | 0.00 | 39 | 1017.5 |
| 20260503233359 | 58 | 0 | 0.0 | 0.0 | 0.00 | 0.00 | 0.00 | 38 | 1017.6 |
| 20260503233300 | 58 | 0 | 0.0 | 0.0 | 0.00 | 0.00 | 0.00 | 38 | 1017.5 |
| 20260503233159 | 58 | 0 | 0.0 | 0.0 | 0.00 | 0.00 | 0.00 | 38 | 1017.4 |
| 20260503233059 | 58 | 0 | 0.0 | 0.0 | 0.00 | 0.00 | 0.00 | 40 | 1017.5 |
| 20260503232959 | 59 | 0 | 0.0 | 0.0 | 0.00 | 0.00 | 0.00 | 39 | 1017.5 |
| 20260503232859 | 59 | 0 | 0.0 | 0.0 | 0.00 | 0.00 | 0.00 | 40 | 1017.5 |
| 20260503232759 | 59 | 0 | 0.0 | 0.0 | 0.00 | 0.00 | 0.00 | 41 | 1017.5 |
| 20260503232659 | 59 | 0 | 0.0 | 0.0 | 0.00 | 0.00 | 0.00 | 40 | 1017.5 |
| 20260503232559 | 59 | 0 | 0.0 | 0.0 | 0.00 | 0.00 | 0.00 | 39 | 1017.4 |
| 20260503232459 | 59 | 0 | 0.0 | 0.0 | 0.00 | 0.00 | 0.00 | 41 | 1017.5 |
| 20260503232359 | 59 | 0 | 0.0 | 0.0 | 0.00 | 0.00 | 0.00 | 40 | 1017.2 |
| 20260503232259 | 59 | 0 | 0.0 | 0.0 | 0.00 | 0.00 | 0.00 | 41 | 1017.5 |
| 20260503232159 | 59 | 0 | 0.0 | 0.0 | 0.00 | 0.00 | 0.00 | 41 | 1017.5 |
| 20260503232059 | 59 | 0 | 0.0 | 0.0 | 0.00 | 0.00 | 0.00 | 39 | 1017.4 |
| 20260503231958 | 59 | 0 | 0.0 | 0.0 | 0.00 | 0.00 | 0.00 | 40 | 1017.3 |
| 20260503231859 | 59 | 0 | 0.0 | 0.0 | 0.00 | 0.00 | 0.00 | 39 | 1017.3 |
| 20260503231759 | 60 | 0 | 0.0 | 0.0 | 0.00 | 0.00 | 0.00 | 42 | 1017.3 |
| 20260503231659 | 60 | 0 | 0.0 | 0.0 | 0.00 | 0.00 | 0.00 | 40 | 1017.3 |
| 20260503231559 | 60 | 0 | 0.0 | 0.0 | 0.00 | 0.00 | 0.00 | 41 | 1017.4 |
| 20260503231458 | 60 | 0 | 0.0 | 0.0 | 0.00 | 0.00 | 0.00 | 40 | 1017.3 |
| 20260503231359 | 60 | 0 | 0.0 | 0.0 | 0.00 | 0.00 | 0.00 | 38 | 1017.2 |
| 20260503231258 | 60 | 0 | 0.0 | 0.0 | 0.00 | 0.00 | 0.00 | 40 | 1017.3 |
| 20260503231158 | 60 | 0 | 0.0 | 0.0 | 0.00 | 0.00 | 0.00 | 41 | 1017.3 |
| 20260503231059 | 60 | 0 | 0.0 | 0.0 | 0.00 | 0.00 | 0.00 | 39 | 1017.1 |
| 20260503230958 | 60 | 0 | 0.0 | 0.0 | 0.00 | 0.00 | 0.00 | 39 | 1017.5 |
| 20260503230858 | 60 | 0 | 0.0 | 0.0 | 0.00 | 0.00 | 0.00 | 38 | 1017.4 |
| 20260503230759 | 60 | 0 | 0.0 | 0.0 | 0.00 | 0.00 | 0.00 | 38 | 1017.2 |
| 20260503230658 | 60 | 0 | 0.0 | 0.0 | 0.00 | 0.00 | 0.00 | 35 | 1017.2 |
| 20260503230558 | 60 | 0 | 0.0 | 0.0 | 0.00 | 0.00 | 0.00 | 36 | 1017.4 |
| 20260503230458 | 60 | 0 | 0.0 | 0.0 | 0.00 | 0.00 | 0.00 | 36 | 1017.3 |
| 20260503230358 | 60 | 0 | 0.0 | 0.0 | 0.00 | 0.00 | 0.00 | 38 | 1017.4 |
| 20260503230259 | 60 | 0 | 0.0 | 0.0 | 0.00 | 0.00 | 0.00 | 40 | 1017.4 |
| 20260503230158 | 60 | 0 | 0.0 | 0.0 | 0.00 | 0.00 | 0.00 | 41 | 1017.2 |
| 20260503230058 | 60 | 0 | 0.0 | 0.0 | 0.00 | 0.00 | 0.00 | 38 | 1017.3 |
| 20260503225959 | 60 | 0 | 0.0 | 0.0 | 0.00 | 0.00 | 0.00 | 37 | 1017.4 |
| 20260503225858 | 60 | 0 | 0.0 | 0.0 | 0.00 | 0.00 | 0.00 | 38 | 1017.4 |
| 20260503225758 | 60 | 0 | 0.0 | 0.0 | 0.00 | 0.00 | 0.00 | 40 | 1017.3 |
| 20260503225659 | 60 | 0 | 0.0 | 0.0 | 0.00 | 0.00 | 0.00 | 37 | 1017.3 |
| 20260503225558 | 60 | 0 | 0.0 | 0.0 | 0.00 | 0.00 | 0.00 | 40 | 1017.4 |
| 20260503225458 | 60 | 0 | 0.0 | 0.0 | 0.00 | 0.00 | 0.00 | 41 | 1017.4 |
| 20260503225358 | 60 | 0 | 0.0 | 0.0 | 0.00 | 0.00 | 0.00 | 39 | 1017.3 |
| 20260503225258 | 60 | 0 | 0.0 | 0.0 | 0.00 | 0.00 | 0.00 | 40 | 1017.4 |
| 20260503225158 | 60 | 0 | 0.0 | 0.0 | 0.00 | 0.00 | 0.00 | 38 | 1017.4 |
| 20260503225058 | 60 | 0 | 0.0 | 0.0 | 0.00 | 0.00 | 0.00 | 39 | 1017.3 |
| 20260503224958 | 60 | 0 | 0.0 | 0.0 | 0.00 | 0.00 | 0.00 | 34 | 1017.4 |
| 20260503224858 | 60 | 0 | 0.0 | 0.0 | 0.00 | 0.00 | 0.00 | 35 | 1017.5 |
| 20260503224757 | 60 | 0 | 0.0 | 0.0 | 0.00 | 0.00 | 0.00 | 37 | 1017.4 |
| 20260503224658 | 60 | 0 | 0.0 | 0.0 | 0.00 | 0.00 | 0.00 | 38 | 1017.3 |
| 20260503224558 | 60 | 0 | 0.0 | 0.0 | 0.00 | 0.00 | 0.00 | 38 | 1017.3 |
| 20260503224457 | 60 | 0 | 0.0 | 0.0 | 0.00 | 0.00 | 0.00 | 38 | 1017.3 |
| 20260503224358 | 60 | 0 | 0.0 | 0.0 | 0.00 | 0.00 | 0.00 | 38 | 1017.4 |
| 20260503224258 | 60 | 0 | 0.0 | 0.0 | 0.00 | 0.00 | 0.00 | 37 | 1017.5 |
| 20260503224157 | 60 | 0 | 0.0 | 0.0 | 0.00 | 0.00 | 0.00 | 37 | 1017.5 |
| 20260503224058 | 60 | 0 | 0.0 | 0.0 | 0.00 | 0.00 | 0.00 | 37 | 1017.4 |
| 20260503223958 | 61 | 0 | 0.0 | 0.0 | 0.00 | 0.00 | 0.00 | 37 | 1017.4 |
| 20260503223857 | 61 | 0 | 0.0 | 0.0 | 0.00 | 0.00 | 0.00 | 39 | 1017.6 |
| 20260503223758 | 61 | 0 | 0.0 | 0.0 | 0.00 | 0.00 | 0.00 | 37 | 1017.4 |
| 20260503223658 | 61 | 0 | 0.0 | 0.0 | 0.00 | 0.00 | 0.00 | 38 | 1017.6 |
| 20260503223557 | 61 | 0 | 0.0 | 0.0 | 0.00 | 0.00 | 0.00 | 36 | 1017.4 |
| 20260503223458 | 61 | 0 | 0.0 | 0.0 | 0.00 | 0.00 | 0.00 | 36 | 1017.4 |
| 20260503223358 | 61 | 0 | 0.0 | 0.0 | 0.00 | 0.00 | 0.00 | 35 | 1017.6 |
| 20260503223257 | 61 | 0 | 0.0 | 0.0 | 0.00 | 0.00 | 0.00 | 34 | 1017.5 |
| 20260503223157 | 61 | 0 | 0.0 | 0.0 | 0.00 | 0.00 | 0.00 | 34 | 1017.5 |
| 20260503223058 | 61 | 0 | 0.0 | 0.0 | 0.00 | 0.00 | 0.00 | 36 | 1017.5 |
| 20260503222957 | 61 | 0 | 0.0 | 0.0 | 0.00 | 0.00 | 0.00 | 37 | 1017.3 |
| 20260503222857 | 62 | 0 | 0.0 | 0.0 | 0.00 | 0.00 | 0.00 | 39 | 1017.4 |
| 20260503222757 | 62 | 0 | 0.0 | 0.0 | 0.00 | 0.00 | 0.00 | 36 | 1017.5 |
| 20260503222657 | 62 | 0 | 0.0 | 0.0 | 0.00 | 0.00 | 0.00 | 32 | 1017.5 |
| 20260503222557 | 62 | 0 | 0.0 | 1.7 | 0.00 | 0.00 | 0.00 | 31 | 1017.6 |
| 20260503222457 | 62 | 0 | 0.0 | 1.7 | 0.00 | 0.00 | 0.00 | 31 | 1017.4 |
| 20260503222357 | 62 | 0 | 0.0 | 0.0 | 0.00 | 0.00 | 0.00 | 31 | 1017.4 |
| 20260503222257 | 62 | 0 | 0.0 | 0.0 | 0.00 | 0.00 | 0.00 | 34 | 1017.6 |
| 20260503222156 | 62 | 0 | 0.0 | 0.0 | 0.00 | 0.00 | 0.00 | 32 | 1017.6 |
| 20260503222057 | 62 | 0 | 0.0 | 0.0 | 0.00 | 0.00 | 0.00 | 33 | 1017.5 |
| 20260503221957 | 62 | 0 | 0.0 | 0.0 | 0.00 | 0.00 | 0.00 | 32 | 1017.5 |
| 20260503221857 | 62 | 0 | 0.0 | 0.0 | 0.00 | 0.00 | 0.00 | 32 | 1017.7 |
| 20260503221757 | 61 | 0 | 0.0 | 0.0 | 0.00 | 0.00 | 0.00 | 32 | 1017.5 |
| 20260503221656 | 61 | 0 | 0.0 | 0.0 | 0.00 | 0.00 | 0.00 | 32 | 1017.7 |
| 20260503221556 | 62 | 0 | 0.0 | 0.0 | 0.00 | 0.00 | 0.00 | 32 | 1017.5 |
| 20260503221457 | 62 | 0 | 0.0 | 1.7 | 0.00 | 0.00 | 0.00 | 32 | 1017.6 |
| 20260503221356 | 62 | 0 | 0.0 | 1.7 | 0.00 | 0.00 | 0.00 | 32 | 1017.5 |
| 20260503221256 | 62 | 50 | 1.7 | 2.6 | 0.00 | 0.00 | 0.00 | 31 | 1017.6 |
| 20260503221157 | 62 | 36 | 1.7 | 2.6 | 0.00 | 0.00 | 0.00 | 32 | 1017.5 |
| 20260503221056 | 61 | 0 | 0.0 | 0.0 | 0.00 | 0.00 | 0.00 | 33 | 1017.6 |
| 20260503220956 | 61 | 0 | 0.0 | 0.0 | 0.00 | 0.00 | 0.00 | 33 | 1017.5 |
| 20260503220857 | 61 | 0 | 0.0 | 0.9 | 0.00 | 0.00 | 0.00 | 32 | 1017.7 |
| 20260503220756 | 61 | 51 | 0.9 | 1.7 | 0.00 | 0.00 | 0.00 | 32 | 1017.5 |
| 20260503220656 | 62 | 48 | 0.9 | 1.7 | 0.00 | 0.00 | 0.00 | 31 | 1017.6 |
| 20260503220556 | 61 | 63 | 0.0 | 1.7 | 0.00 | 0.00 | 0.00 | 31 | 1017.6 |
| 20260503220456 | 62 | 61 | 1.7 | 3.5 | 0.00 | 0.00 | 0.00 | 33 | 1017.7 |
| 20260503220356 | 62 | 61 | 1.7 | 3.5 | 0.00 | 0.00 | 0.00 | 33 | 1017.5 |
| 20260503220256 | 62 | 24 | 0.0 | 0.9 | 0.00 | 0.00 | 0.00 | 35 | 1017.8 |
| 20260503220156 | 62 | 0 | 0.0 | 0.0 | 0.00 | 0.00 | 0.00 | 34 | 1017.7 |
| 20260503220056 | 62 | 0 | 0.0 | 0.0 | 0.00 | 0.00 | 0.00 | 32 | 1017.6 |
| 20260503215955 | 62 | 0 | 0.0 | 0.0 | 0.00 | 0.00 | 0.00 | 33 | 1017.6 |
| 20260503215856 | 62 | 0 | 0.0 | 1.7 | 0.00 | 0.00 | 0.00 | 33 | 1017.6 |
| 20260503215756 | 61 | 39 | 1.7 | 1.7 | 0.00 | 0.00 | 0.00 | 34 | 1017.6 |
| 20260503215656 | 62 | 0 | 0.0 | 1.7 | 0.00 | 0.00 | 0.00 | 33 | 1017.4 |
| 20260503215556 | 62 | 0 | 0.0 | 1.7 | 0.00 | 0.00 | 0.00 | 36 | 1017.7 |
| 20260503215456 | 61 | 0 | 0.0 | 1.7 | 0.00 | 0.00 | 0.00 | 38 | 1017.6 |
| 20260503215356 | 61 | 0 | 0.0 | 0.0 | 0.00 | 0.00 | 0.00 | 37 | 1017.5 |
| 20260503215255 | 61 | 0 | 0.0 | 0.0 | 0.00 | 0.00 | 0.00 | 38 | 1017.5 |
| 20260503215156 | 62 | 0 | 0.0 | 0.0 | 0.00 | 0.00 | 0.00 | 36 | 1017.6 |
| 20260503215056 | 62 | 0 | 0.0 | 0.0 | 0.00 | 0.00 | 0.00 | 36 | 1017.7 |
| 20260503214955 | 62 | 0 | 0.0 | 0.0 | 0.00 | 0.00 | 0.00 | 33 | 1017.5 |
| 20260503214856 | 62 | 0 | 0.0 | 0.0 | 0.00 | 0.00 | 0.00 | 32 | 1017.6 |
| 20260503214756 | 62 | 0 | 0.0 | 0.0 | 0.00 | 0.00 | 0.00 | 34 | 1017.8 |
| 20260503214655 | 62 | 0 | 0.0 | 0.0 | 0.00 | 0.00 | 0.00 | 31 | 1017.7 |
| 20260503214556 | 62 | 0 | 0.0 | 0.0 | 0.00 | 0.00 | 0.00 | 32 | 1017.6 |
| 20260503214456 | 62 | 0 | 0.0 | 0.0 | 0.00 | 0.00 | 0.00 | 34 | 1017.8 |
| 20260503214355 | 62 | 0 | 0.0 | 0.0 | 0.00 | 0.00 | 0.00 | 34 | 1017.5 |
| 20260503214255 | 62 | 0 | 0.0 | 2.6 | 0.00 | 0.00 | 0.00 | 33 | 1017.8 |
| 20260503214156 | 62 | 62 | 0.0 | 2.6 | 0.00 | 0.00 | 0.00 | 35 | 1017.8 |
| 20260503214055 | 61 | 0 | 0.0 | 1.7 | 0.00 | 0.00 | 0.00 | 35 | 1017.8 |
| 20260503213955 | 61 | 0 | 0.0 | 1.7 | 0.00 | 0.00 | 0.00 | 32 | 1017.8 |
| 20260503213856 | 62 | 54 | 0.9 | 0.9 | 0.00 | 0.00 | 0.00 | 33 | 1017.7 |
| 20260503213755 | 62 | 0 | 0.0 | 0.0 | 0.00 | 0.00 | 0.00 | 36 | 1017.7 |
| 20260503213655 | 62 | 0 | 0.0 | 0.0 | 0.00 | 0.00 | 0.00 | 34 | 1017.5 |
| 20260503213556 | 62 | 0 | 0.0 | 0.0 | 0.00 | 0.00 | 0.00 | 37 | 1018.0 |
| 20260503213455 | 62 | 0 | 0.0 | 0.0 | 0.00 | 0.00 | 0.00 | 35 | 1017.8 |
| 20260503213355 | 62 | 0 | 0.0 | 0.0 | 0.00 | 0.00 | 0.00 | 33 | 1017.7 |
| 20260503213255 | 62 | 0 | 0.0 | 0.0 | 0.00 | 0.00 | 0.00 | 33 | 1017.7 |
| 20260503213155 | 62 | 0 | 0.0 | 0.0 | 0.00 | 0.00 | 0.00 | 33 | 1017.8 |
| 20260503213055 | 62 | 0 | 0.0 | 0.0 | 0.00 | 0.00 | 0.00 | 36 | 1017.7 |
| 20260503212955 | 62 | 0 | 0.0 | 0.0 | 0.00 | 0.00 | 0.00 | 35 | 1017.9 |
| 20260503212855 | 62 | 0 | 0.0 | 0.0 | 0.00 | 0.00 | 0.00 | 33 | 1017.9 |
| 20260503212755 | 62 | 0 | 0.0 | 2.6 | 0.00 | 0.00 | 0.00 | 32 | 1017.8 |
| 20260503212655 | 61 | 36 | 1.7 | 2.6 | 0.00 | 0.00 | 0.00 | 36 | 1017.8 |
| 20260503212555 | 61 | 38 | 0.9 | 1.7 | 0.00 | 0.00 | 0.00 | 36 | 1017.8 |
| 20260503212455 | 61 | 60 | 0.9 | 1.7 | 0.00 | 0.00 | 0.00 | 34 | 1017.6 |
| 20260503212354 | 61 | 56 | 0.0 | 1.7 | 0.00 | 0.00 | 0.00 | 34 | 1017.8 |
| 20260503212255 | 60 | 51 | 0.9 | 1.7 | 0.00 | 0.00 | 0.00 | 35 | 1017.7 |
| 20260503212155 | 61 | 81 | 0.9 | 1.7 | 0.00 | 0.00 | 0.00 | 38 | 1017.7 |
| 20260503212054 | 61 | 0 | 0.0 | 0.0 | 0.00 | 0.00 | 0.00 | 35 | 1017.7 |
| 20260503211955 | 61 | 0 | 0.0 | 0.0 | 0.00 | 0.00 | 0.00 | 35 | 1017.9 |
| 20260503211855 | 61 | 0 | 0.0 | 0.0 | 0.00 | 0.00 | 0.00 | 35 | 1017.8 |
| 20260503211755 | 61 | 0 | 0.0 | 0.9 | 0.00 | 0.00 | 0.00 | 35 | 1017.8 |
| 20260503211655 | 61 | 0 | 0.0 | 1.7 | 0.00 | 0.00 | 0.00 | 34 | 1017.6 |
| 20260503211554 | 61 | 76 | 0.9 | 1.7 | 0.00 | 0.00 | 0.00 | 36 | 1017.7 |
| 20260503211454 | 61 | 0 | 0.0 | 0.0 | 0.00 | 0.00 | 0.00 | 33 | 1017.9 |
| 20260503211355 | 61 | 0 | 0.0 | 0.9 | 0.00 | 0.00 | 0.00 | 33 | 1017.8 |
| 20260503211255 | 61 | 0 | 0.0 | 1.7 | 0.00 | 0.00 | 0.00 | 34 | 1017.7 |
| 20260503211154 | 61 | 46 | 0.9 | 1.7 | 0.00 | 0.00 | 0.00 | 33 | 1018.0 |
| 20260503211055 | 61 | 0 | 0.0 | 0.0 | 0.00 | 0.00 | 0.00 | 35 | 1017.8 |
| 20260503210955 | 61 | 0 | 0.0 | 0.0 | 0.00 | 0.00 | 0.00 | 35 | 1017.8 |
| 20260503210854 | 61 | 0 | 0.0 | 0.0 | 0.00 | 0.00 | 0.00 | 33 | 1017.8 |
| 20260503210755 | 61 | 0 | 0.0 | 0.0 | 0.00 | 0.00 | 0.00 | 33 | 1017.7 |
| 20260503210654 | 61 | 0 | 0.0 | 0.9 | 0.00 | 0.00 | 0.00 | 35 | 1017.9 |
| 20260503210554 | 61 | 71 | 0.9 | 0.9 | 0.00 | 0.00 | 0.00 | 35 | 1017.7 |
| 20260503210455 | 61 | 0 | 0.0 | 0.0 | 0.00 | 0.00 | 0.00 | 34 | 1017.9 |
| 20260503210354 | 61 | 0 | 0.0 | 0.9 | 0.00 | 0.00 | 0.00 | 33 | 1017.9 |
| 20260503210254 | 61 | 77 | 0.9 | 1.7 | 0.00 | 0.00 | 0.00 | 36 | 1017.8 |
| 20260503210154 | 61 | 0 | 0.0 | 1.7 | 0.00 | 0.00 | 0.00 | 34 | 1017.8 |
| 20260503210054 | 61 | 0 | 0.0 | 1.7 | 0.00 | 0.00 | 0.00 | 33 | 1017.8 |
| 20260503205954 | 61 | 54 | 0.9 | 1.7 | 0.00 | 0.00 | 0.00 | 36 | 1017.8 |
| 20260503205854 | 61 | 0 | 0.0 | 0.0 | 0.00 | 0.00 | 0.00 | 38 | 1017.8 |
| 20260503205754 | 61 | 0 | 0.0 | 0.0 | 0.00 | 0.00 | 0.00 | 37 | 1017.9 |
| 20260503205654 | 61 | 0 | 0.0 | 1.7 | 0.00 | 0.00 | 0.00 | 35 | 1017.9 |
| 20260503205554 | 61 | 43 | 0.9 | 1.7 | 0.00 | 0.00 | 0.00 | 34 | 1018.0 |
| 20260503205454 | 61 | 43 | 1.7 | 1.7 | 0.00 | 0.00 | 0.00 | 35 | 1018.0 |
| 20260503205354 | 61 | 39 | 1.7 | 2.6 | 0.00 | 0.00 | 0.00 | 33 | 1017.9 |
| 20260503205254 | 61 | 46 | 1.7 | 2.6 | 0.00 | 0.00 | 0.00 | 34 | 1018.0 |
| 20260503205154 | 61 | 0 | 0.0 | 0.0 | 0.00 | 0.00 | 0.00 | 37 | 1018.0 |
| 20260503205053 | 61 | 0 | 0.0 | 1.7 | 0.00 | 0.00 | 0.00 | 35 | 1018.0 |
| 20260503204954 | 61 | 67 | 0.9 | 1.7 | 0.00 | 0.00 | 0.00 | 37 | 1017.9 |
| 20260503204854 | 61 | 0 | 0.0 | 0.0 | 0.00 | 0.00 | 0.00 | 36 | 1017.9 |
| 20260503204753 | 61 | 0 | 0.0 | 1.7 | 0.00 | 0.00 | 0.00 | 36 | 1018.0 |
| 20260503204653 | 61 | 0 | 0.0 | 0.0 | 0.00 | 0.00 | 0.00 | 37 | 1018.0 |
| 20260503204554 | 61 | 0 | 0.0 | 0.9 | 0.00 | 0.00 | 0.00 | 32 | 1017.8 |
| 20260503204453 | 61 | 0 | 0.0 | 2.6 | 0.00 | 0.00 | 0.00 | 33 | 1017.8 |
| 20260503204353 | 60 | 124 | 0.0 | 0.9 | 0.00 | 0.00 | 0.00 | 38 | 1018.0 |
| 20260503204254 | 60 | 0 | 0.0 | 0.0 | 0.00 | 0.00 | 0.00 | 36 | 1018.1 |
| 20260503204154 | 61 | 0 | 0.0 | 0.0 | 0.00 | 0.00 | 0.00 | 36 | 1017.9 |
| 20260503204053 | 61 | 0 | 0.0 | 0.9 | 0.00 | 0.00 | 0.00 | 38 | 1018.0 |
| 20260503203953 | 60 | 0 | 0.0 | 1.7 | 0.00 | 0.00 | 0.00 | 35 | 1018.0 |
| 20260503203854 | 60 | 59 | 0.0 | 1.7 | 0.00 | 0.00 | 0.00 | 36 | 1017.9 |
| 20260503203753 | 61 | 63 | 0.0 | 1.7 | 0.00 | 0.00 | 0.00 | 37 | 1018.1 |
| 20260503203653 | 61 | 0 | 0.0 | 0.9 | 0.00 | 0.00 | 0.00 | 36 | 1018.0 |
| 20260503203553 | 61 | 63 | 0.9 | 1.7 | 0.00 | 0.00 | 0.00 | 35 | 1017.9 |
| 20260503203453 | 61 | 0 | 0.0 | 2.6 | 0.00 | 0.00 | 0.00 | 34 | 1018.0 |
| 20260503203353 | 61 | 18 | 1.7 | 2.6 | 0.00 | 0.00 | 0.00 | 34 | 1018.1 |
| 20260503203253 | 61 | 60 | 0.9 | 3.5 | 0.00 | 0.00 | 0.00 | 36 | 1018.1 |
| 20260503203152 | 61 | 36 | 0.0 | 2.6 | 0.00 | 0.00 | 0.00 | 37 | 1018.1 |
| 20260503203053 | 61 | 57 | 1.7 | 2.6 | 0.00 | 0.00 | 0.00 | 37 | 1018.1 |
| 20260503202953 | 61 | 0 | 0.0 | 1.7 | 0.00 | 0.00 | 0.00 | 37 | 1018.1 |
| 20260503202852 | 61 | 53 | 0.9 | 2.6 | 0.00 | 0.00 | 0.00 | 34 | 1018.1 |
| 20260503202752 | 61 | 5 | 1.7 | 2.6 | 0.00 | 0.00 | 0.00 | 34 | 1018.0 |
| 20260503202653 | 61 | 0 | 0.0 | 1.7 | 0.00 | 0.00 | 0.00 | 34 | 1018.0 |
| 20260503202553 | 61 | 79 | 0.0 | 0.9 | 0.00 | 0.00 | 0.00 | 35 | 1018.1 |
| 20260503202452 | 61 | 0 | 0.0 | 0.0 | 0.00 | 0.00 | 0.00 | 36 | 1018.1 |
| 20260503202353 | 61 | 0 | 0.0 | 0.0 | 0.00 | 0.00 | 0.00 | 34 | 1018.1 |
| 20260503202253 | 61 | 0 | 0.0 | 0.9 | 0.00 | 0.00 | 0.00 | 35 | 1018.1 |
| 20260503202152 | 61 | 0 | 0.0 | 1.7 | 0.00 | 0.00 | 0.00 | 33 | 1018.0 |
| 20260503202052 | 61 | 0 | 0.0 | 0.9 | 0.00 | 0.00 | 0.00 | 37 | 1018.0 |
| 20260503201953 | 61 | 0 | 0.0 | 0.0 | 0.00 | 0.00 | 0.00 | 36 | 1018.1 |
| 20260503201852 | 60 | 0 | 0.0 | 0.0 | 0.00 | 0.00 | 0.00 | 35 | 1018.3 |
| 20260503201752 | 59 | 0 | 0.0 | 0.0 | 0.00 | 0.00 | 0.00 | 35 | 1018.2 |
| 20260503201652 | 60 | 0 | 0.0 | 0.0 | 0.00 | 0.00 | 0.00 | 35 | 1018.3 |
| 20260503201553 | 60 | 0 | 0.0 | 1.7 | 0.00 | 0.00 | 0.00 | 32 | 1018.1 |
| 20260503201452 | 60 | 105 | 1.7 | 1.7 | 0.00 | 0.00 | 0.00 | 32 | 1018.2 |
| 20260503201352 | 58 | 0 | 0.0 | 1.7 | 0.00 | 0.00 | 0.00 | 36 | 1018.1 |
| 20260503201252 | 60 | 67 | 0.9 | 1.7 | 0.00 | 0.00 | 0.00 | 35 | 1018.3 |
| 20260503201152 | 60 | 97 | 0.0 | 1.7 | 0.00 | 0.00 | 0.00 | 33 | 1018.2 |
| 20260503201052 | 60 | 125 | 0.0 | 1.7 | 0.00 | 0.00 | 0.00 | 36 | 1018.1 |
| 20260503200952 | 60 | 0 | 0.0 | 1.7 | 0.00 | 0.00 | 0.00 | 34 | 1018.4 |
| 20260503200851 | 60 | 0 | 0.0 | 0.0 | 0.00 | 0.00 | 0.00 | 39 | 1018.3 |
| 20260503200752 | 60 | 0 | 0.0 | 0.0 | 0.00 | 0.00 | 0.00 | 36 | 1018.2 |
| 20260503200652 | 60 | 0 | 0.0 | 0.9 | 0.00 | 0.00 | 0.00 | 36 | 1018.4 |
| 20260503200552 | 60 | 0 | 0.0 | 0.9 | 0.00 | 0.00 | 0.00 | 35 | 1018.2 |
| 20260503200452 | 60 | 0 | 0.0 | 0.0 | 0.00 | 0.00 | 0.00 | 38 | 1018.4 |
| 20260503200352 | 60 | 0 | 0.0 | 0.0 | 0.00 | 0.00 | 0.00 | 35 | 1018.2 |
| 20260503200252 | 60 | 0 | 0.0 | 0.0 | 0.00 | 0.00 | 0.00 | 34 | 1018.5 |
| 20260503200151 | 60 | 0 | 0.0 | 0.0 | 0.00 | 0.00 | 0.00 | 37 | 1018.4 |
| 20260503200052 | 60 | 0 | 0.0 | 0.0 | 0.00 | 0.00 | 0.00 | 35 | 1018.3 |
| 20260503195952 | 60 | 0 | 0.0 | 0.0 | 0.00 | 0.00 | 0.00 | 34 | 1018.3 |
| 20260503195851 | 60 | 0 | 0.0 | 0.0 | 0.00 | 0.00 | 0.00 | 36 | 1018.4 |
| 20260503195751 | 60 | 0 | 0.0 | 0.0 | 0.00 | 0.00 | 0.00 | 36 | 1018.4 |
| 20260503195652 | 59 | 0 | 0.0 | 1.7 | 0.00 | 0.00 | 0.00 | 37 | 1018.5 |
| 20260503195552 | 60 | 0 | 0.0 | 1.7 | 0.00 | 0.00 | 0.00 | 37 | 1018.6 |
| 20260503195451 | 60 | 40 | 0.0 | 0.9 | 0.00 | 0.00 | 0.00 | 34 | 1018.4 |
| 20260503195351 | 60 | 0 | 0.0 | 1.7 | 0.00 | 0.00 | 0.00 | 36 | 1018.7 |
| 20260503195252 | 60 | 74 | 0.9 | 1.7 | 0.00 | 0.00 | 0.00 | 34 | 1018.6 |
| 20260503195151 | 60 | 0 | 0.0 | 2.6 | 0.00 | 0.00 | 0.00 | 33 | 1018.5 |
| 20260503195051 | 60 | 351 | 1.7 | 2.6 | 0.00 | 0.00 | 0.00 | 36 | 1018.6 |
| 20260503194951 | 60 | 0 | 0.0 | 0.0 | 0.00 | 0.00 | 0.00 | 35 | 1018.5 |
| 20260503194851 | 60 | 0 | 0.0 | 3.5 | 0.00 | 0.00 | 0.00 | 34 | 1018.6 |
| 20260503194751 | 60 | 46 | 0.0 | 3.5 | 0.00 | 0.00 | 0.00 | 34 | 1018.5 |
| 20260503194651 | 60 | 56 | 0.0 | 1.7 | 0.00 | 0.00 | 0.00 | 36 | 1018.7 |
| 20260503194551 | 60 | 0 | 0.0 | 1.7 | 0.00 | 0.00 | 0.00 | 37 | 1018.7 |
| 20260503194451 | 60 | 60 | 0.9 | 1.7 | 0.00 | 0.00 | 0.00 | 37 | 1018.6 |
| 20260503194351 | 60 | 68 | 0.0 | 2.6 | 0.00 | 0.00 | 0.00 | 35 | 1018.6 |
| 20260503194251 | 60 | 47 | 1.7 | 1.7 | 0.00 | 0.00 | 0.00 | 37 | 1018.6 |
| 20260503194150 | 60 | 60 | 0.9 | 2.6 | 0.00 | 0.00 | 0.00 | 37 | 1018.8 |
| 20260503194051 | 60 | 18 | 2.6 | 2.6 | 0.00 | 0.00 | 0.00 | 35 | 1018.9 |
| 20260503193951 | 60 | 38 | 1.7 | 2.6 | 0.00 | 0.00 | 0.00 | 36 | 1018.8 |
| 20260503193851 | 60 | 54 | 0.0 | 2.6 | 0.00 | 0.00 | 0.00 | 34 | 1018.8 |
| 20260503193750 | 60 | 49 | 0.9 | 2.6 | 0.00 | 0.00 | 0.00 | 34 | 1018.9 |
| 20260503193651 | 60 | 0 | 0.0 | 1.7 | 0.00 | 0.00 | 0.00 | 33 | 1018.8 |
| 20260503193551 | 60 | 22 | 0.9 | 2.6 | 0.00 | 0.00 | 0.00 | 34 | 1018.9 |
| 20260503193450 | 60 | 51 | 0.9 | 3.5 | 0.00 | 0.00 | 0.00 | 34 | 1019.0 |
| 20260503193350 | 60 | 194 | 1.7 | 3.5 | 0.00 | 0.00 | 0.00 | 36 | 1018.8 |
| 20260503193251 | 60 | 0 | 0.0 | 3.5 | 0.00 | 0.00 | 0.00 | 34 | 1019.0 |
| 20260503193150 | 60 | 43 | 2.6 | 3.5 | 0.00 | 0.00 | 0.00 | 36 | 1018.8 |
| 20260503193050 | 60 | 64 | 0.9 | 2.6 | 0.00 | 0.00 | 0.00 | 37 | 1018.8 |
| 20260503192950 | 60 | 0 | 0.0 | 1.7 | 0.00 | 0.00 | 0.00 | 35 | 1018.8 |
| 20260503192851 | 60 | 43 | 0.9 | 1.7 | 0.00 | 0.00 | 0.00 | 36 | 1018.8 |
| 20260503192750 | 60 | 0 | 0.0 | 0.9 | 0.00 | 0.00 | 0.00 | 39 | 1018.8 |
| 20260503192650 | 60 | 63 | 0.9 | 0.9 | 0.00 | 0.00 | 0.00 | 37 | 1019.0 |
| 20260503192551 | 60 | 0 | 0.0 | 2.6 | 0.00 | 0.00 | 0.00 | 35 | 1019.0 |
| 20260503192450 | 60 | 53 | 0.9 | 2.6 | 0.00 | 0.00 | 0.00 | 36 | 1019.0 |
| 20260503192350 | 60 | 0 | 0.0 | 1.7 | 0.00 | 0.00 | 0.00 | 36 | 1019.0 |
| 20260503192250 | 60 | 0 | 0.0 | 1.7 | 0.00 | 0.00 | 0.00 | 37 | 1019.2 |
| 20260503192150 | 60 | 40 | 0.9 | 1.7 | 0.00 | 0.00 | 0.00 | 37 | 1019.0 |
| 20260503192050 | 60 | 55 | 1.7 | 1.7 | 0.00 | 0.00 | 0.00 | 35 | 1019.1 |
| 20260503191950 | 61 | 45 | 0.9 | 1.7 | 0.00 | 0.00 | 0.00 | 35 | 1018.8 |
| 20260503191850 | 61 | 0 | 0.0 | 0.0 | 0.00 | 0.00 | 0.00 | 36 | 1019.0 |
| 20260503191749 | 61 | 0 | 0.0 | 0.0 | 0.00 | 0.00 | 0.00 | 35 | 1019.0 |
| 20260503191650 | 61 | 0 | 0.0 | 1.7 | 0.00 | 0.00 | 0.00 | 36 | 1019.1 |
| 20260503191550 | 61 | 0 | 0.0 | 2.6 | 0.00 | 0.00 | 0.00 | 36 | 1019.1 |
| 20260503191449 | 60 | 18 | 2.6 | 2.6 | 0.00 | 0.00 | 0.00 | 37 | 1019.2 |
| 20260503191349 | 59 | 0 | 0.0 | 0.0 | 0.00 | 0.00 | 0.00 | 37 | 1019.2 |
| 20260503191250 | 58 | 0 | 0.0 | 0.0 | 0.00 | 0.00 | 0.00 | 36 | 1019.1 |
| 20260503191150 | 58 | 0 | 0.0 | 0.0 | 0.00 | 0.00 | 0.00 | 36 | 1019.1 |
| 20260503191049 | 59 | 0 | 0.0 | 0.9 | 0.00 | 0.00 | 0.00 | 34 | 1019.2 |
| 20260503190949 | 59 | 0 | 0.0 | 2.6 | 0.00 | 0.00 | 0.00 | 37 | 1019.1 |
| 20260503190850 | 59 | 26 | 1.7 | 2.6 | 0.00 | 0.00 | 0.00 | 37 | 1019.3 |
| 20260503190750 | 58 | 0 | 0.0 | 0.9 | 0.00 | 0.00 | 0.00 | 36 | 1019.0 |
| 20260503190649 | 58 | 0 | 0.0 | 0.0 | 0.00 | 0.00 | 0.00 | 36 | 1019.3 |
| 20260503190549 | 58 | 0 | 0.0 | 0.0 | 0.00 | 0.00 | 0.00 | 35 | 1019.2 |
| 20260503190449 | 58 | 0 | 0.0 | 0.0 | 0.00 | 0.00 | 0.00 | 36 | 1019.3 |
| 20260503190349 | 58 | 0 | 0.0 | 0.0 | 0.00 | 0.00 | 0.00 | 35 | 1019.3 |
| 20260503190249 | 58 | 0 | 0.0 | 0.0 | 0.00 | 0.00 | 0.00 | 35 | 1019.3 |
| 20260503190149 | 58 | 0 | 0.0 | 1.7 | 0.00 | 0.00 | 0.00 | 35 | 1019.0 |
| 20260503190049 | 58 | 0 | 0.0 | 1.7 | 0.00 | 0.00 | 0.00 | 39 | 1019.2 |
| 20260503185949 | 58 | 54 | 0.0 | 0.9 | 0.00 | 0.00 | 0.00 | 36 | 1019.4 |
| 20260503185849 | 58 | 0 | 0.0 | 0.9 | 0.00 | 0.00 | 0.00 | 35 | 1019.4 |
| 20260503185749 | 58 | 63 | 0.0 | 0.9 | 0.00 | 0.00 | 0.00 | 35 | 1019.2 |
| 20260503185648 | 58 | 0 | 0.0 | 0.0 | 0.00 | 0.00 | 0.00 | 34 | 1019.2 |
| 20260503185549 | 59 | 0 | 0.0 | 1.7 | 0.00 | 0.00 | 0.00 | 33 | 1019.4 |
| 20260503185449 | 59 | 112 | 0.0 | 1.7 | 0.00 | 0.00 | 0.00 | 33 | 1019.4 |
| 20260503185349 | 59 | 0 | 0.0 | 0.0 | 0.00 | 0.00 | 0.00 | 34 | 1019.3 |
| 20260503185248 | 59 | 0 | 0.0 | 0.9 | 0.00 | 0.00 | 0.00 | 33 | 1019.3 |
| 20260503185149 | 59 | 0 | 0.0 | 1.7 | 0.00 | 0.00 | 0.00 | 34 | 1019.5 |
| 20260503185049 | 59 | 0 | 0.0 | 1.7 | 0.00 | 0.00 | 0.00 | 38 | 1019.3 |
| 20260503184948 | 59 | 0 | 0.0 | 0.0 | 0.00 | 0.00 | 0.00 | 36 | 1019.4 |
| 20260503184848 | 59 | 0 | 0.0 | 0.9 | 0.00 | 0.00 | 0.00 | 35 | 1019.4 |
| 20260503184748 | 59 | 52 | 0.0 | 1.7 | 0.00 | 0.00 | 0.00 | 37 | 1019.3 |
| 20260503184649 | 58 | 0 | 0.0 | 0.0 | 0.00 | 0.00 | 0.00 | 35 | 1019.6 |
| 20260503184548 | 58 | 0 | 0.0 | 0.0 | 0.00 | 0.00 | 0.00 | 35 | 1019.5 |
| 20260503184448 | 58 | 0 | 0.0 | 0.0 | 0.00 | 0.00 | 0.00 | 39 | 1019.4 |
| 20260503184348 | 58 | 0 | 0.0 | 0.0 | 0.00 | 0.00 | 0.00 | 38 | 1019.6 |
| 20260503184249 | 58 | 0 | 0.0 | 0.9 | 0.00 | 0.00 | 0.00 | 35 | 1019.7 |
| 20260503184148 | 58 | 20 | 0.0 | 0.9 | 0.00 | 0.00 | 0.00 | 34 | 1019.5 |
| 20260503184048 | 58 | 0 | 0.0 | 0.9 | 0.00 | 0.00 | 0.00 | 36 | 1019.5 |
| 20260503183948 | 59 | 35 | 0.9 | 0.9 | 0.00 | 0.00 | 0.00 | 36 | 1019.6 |
| 20260503183847 | 59 | 0 | 0.0 | 2.6 | 0.00 | 0.00 | 0.00 | 37 | 1019.5 |
| 20260503183748 | 59 | 38 | 0.9 | 2.6 | 0.00 | 0.00 | 0.00 | 40 | 1019.4 |
| 20260503183648 | 59 | 11 | 0.9 | 2.6 | 0.00 | 0.00 | 0.00 | 36 | 1019.5 |
| 20260503183548 | 60 | 43 | 2.6 | 2.6 | 0.00 | 0.00 | 0.00 | 35 | 1019.5 |
| 20260503183447 | 60 | 44 | 1.7 | 3.5 | 0.00 | 0.00 | 0.00 | 34 | 1019.5 |
| 20260503183347 | 59 | 46 | 0.9 | 1.7 | 0.00 | 0.00 | 0.00 | 39 | 1019.5 |
| 20260503183248 | 59 | 0 | 0.0 | 0.0 | 0.00 | 0.00 | 0.00 | 35 | 1019.6 |
| 20260503183147 | 59 | 0 | 0.0 | 1.7 | 0.00 | 0.00 | 0.00 | 36 | 1019.7 |
| 20260503183047 | 59 | 0 | 0.0 | 0.0 | 0.00 | 0.00 | 0.00 | 32 | 1019.7 |
| 20260503182947 | 59 | 0 | 0.0 | 1.7 | 0.00 | 0.00 | 0.00 | 39 | 1019.6 |
| 20260503182847 | 59 | 37 | 1.7 | 2.6 | 0.00 | 0.00 | 0.00 | 33 | 1019.4 |
| 20260503182747 | 59 | 16 | 1.7 | 2.6 | 0.00 | 0.00 | 0.00 | 32 | 1019.7 |
| 20260503182647 | 59 | 0 | 0.0 | 1.7 | 0.00 | 0.00 | 0.00 | 34 | 1019.6 |
| 20260503182547 | 59 | 56 | 1.7 | 2.6 | 0.00 | 0.00 | 0.00 | 35 | 1019.7 |
| 20260503182447 | 58 | 0 | 0.0 | 0.0 | 0.00 | 0.00 | 0.00 | 36 | 1019.6 |
| 20260503182346 | 58 | 0 | 0.0 | 0.0 | 0.00 | 0.00 | 0.00 | 34 | 1019.8 |
| 20260503182247 | 58 | 0 | 0.0 | 0.0 | 0.00 | 0.00 | 0.00 | 36 | 1019.8 |
| 20260503182147 | 58 | 0 | 0.0 | 0.0 | 0.00 | 0.00 | 0.00 | 38 | 1019.7 |
| 20260503182046 | 58 | 0 | 0.0 | 0.0 | 0.00 | 0.00 | 0.00 | 35 | 1019.8 |
| 20260503181946 | 58 | 0 | 0.0 | 2.6 | 0.00 | 0.00 | 0.00 | 38 | 1019.6 |
| 20260503181846 | 58 | 0 | 0.0 | 3.5 | 0.00 | 0.00 | 0.00 | 36 | 1019.9 |
| 20260503181747 | 58 | 39 | 1.7 | 2.6 | 0.00 | 0.00 | 0.00 | 35 | 1019.9 |
| 20260503181646 | 58 | 59 | 0.9 | 1.7 | 0.00 | 0.00 | 0.00 | 36 | 1019.9 |
| 20260503181546 | 58 | 0 | 0.0 | 0.0 | 0.00 | 0.00 | 0.00 | 34 | 1019.9 |
| 20260503181446 | 58 | 0 | 0.0 | 1.7 | 0.00 | 0.00 | 0.00 | 35 | 1019.6 |
| 20260503181346 | 58 | 71 | 0.9 | 2.6 | 0.00 | 0.00 | 0.00 | 34 | 1019.9 |
| 20260503181245 | 58 | 3 | 2.6 | 2.6 | 0.00 | 0.00 | 0.00 | 34 | 1020.0 |
| 20260503181145 | 58 | 17 | 0.9 | 3.5 | 0.00 | 0.00 | 0.00 | 34 | 1019.9 |
| 20260503181046 | 58 | 359 | 2.6 | 3.5 | 0.00 | 0.00 | 0.00 | 35 | 1020.1 |
| 20260503180945 | 59 | 311 | 1.7 | 3.5 | 0.00 | 0.00 | 0.00 | 35 | 1019.9 |
| 20260503180845 | 57 | 0 | 0.0 | 0.0 | 0.00 | 0.00 | 0.00 | 37 | 1019.9 |
| 20260503180745 | 57 | 0 | 0.0 | 0.0 | 0.00 | 0.00 | 0.00 | 34 | 1019.9 |
| 20260503180645 | 57 | 0 | 0.0 | 0.9 | 0.00 | 0.00 | 0.00 | 40 | 1019.9 |
| 20260503180545 | 58 | 0 | 0.0 | 1.7 | 0.00 | 0.00 | 0.00 | 35 | 1020.1 |
| 20260503180445 | 58 | 38 | 0.9 | 1.7 | 0.00 | 0.00 | 0.00 | 33 | 1019.8 |
| 20260503180345 | 58 | 0 | 0.0 | 0.0 | 0.00 | 0.00 | 0.00 | 34 | 1020.0 |
| 20260503180245 | 58 | 0 | 0.0 | 0.9 | 0.00 | 0.00 | 0.00 | 34 | 1020.0 |
| 20260503180144 | 57 | 30 | 0.9 | 0.9 | 0.00 | 0.00 | 0.00 | 35 | 1019.8 |
| 20260503180044 | 58 | 0 | 0.0 | 2.6 | 0.00 | 0.00 | 0.00 | 41 | 1019.9 |
| 20260503175944 | 58 | 42 | 1.7 | 2.6 | 0.00 | 0.00 | 0.00 | 34 | 1020.0 |
| 20260503175844 | 57 | 13 | 1.7 | 3.5 | 0.00 | 0.00 | 0.00 | 37 | 1020.2 |
| 20260503175744 | 57 | 351 | 1.7 | 3.5 | 0.00 | 0.00 | 0.00 | 40 | 1020.0 |
| 20260503175644 | 56 | 34 | 0.9 | 1.7 | 0.00 | 0.00 | 0.00 | 36 | 1020.2 |
| 20260503175544 | 56 | 29 | 0.0 | 1.7 | 0.00 | 0.00 | 0.00 | 34 | 1020.0 |
| 20260503175444 | 56 | 134 | 0.9 | 0.9 | 0.00 | 0.00 | 0.00 | 37 | 1020.2 |
| 20260503175343 | 57 | 50 | 0.0 | 1.7 | 0.00 | 0.00 | 0.00 | 36 | 1020.0 |
| 20260503175244 | 57 | 0 | 0.0 | 1.7 | 0.00 | 0.00 | 0.00 | 41 | 1019.9 |
| 20260503175144 | 58 | 9 | 0.9 | 3.5 | 0.00 | 0.00 | 0.00 | 35 | 1020.2 |
| 20260503175043 | 58 | 128 | 2.6 | 3.5 | 0.00 | 0.00 | 0.00 | 33 | 1019.8 |
| 20260503174943 | 58 | 28 | 0.0 | 2.6 | 0.00 | 0.00 | 0.00 | 36 | 1020.3 |
| 20260503174843 | 57 | 0 | 0.0 | 1.7 | 0.00 | 0.00 | 0.00 | 39 | 1020.1 |
| 20260503174743 | 57 | 94 | 0.9 | 1.7 | 0.00 | 0.00 | 0.00 | 36 | 1020.1 |
| 20260503174642 | 57 | 0 | 0.0 | 2.6 | 0.00 | 0.00 | 0.00 | 38 | 1020.1 |
| 20260503174543 | 57 | 100 | 0.9 | 1.7 | 0.00 | 0.00 | 0.00 | 40 | 1020.2 |
| 20260503174443 | 56 | 0 | 0.0 | 0.0 | 0.00 | 0.00 | 0.00 | 37 | 1020.3 |
| 20260503174343 | 56 | 0 | 0.0 | 1.7 | 0.00 | 0.00 | 0.00 | 39 | 1020.2 |
| 20260503174242 | 57 | 25 | 1.7 | 1.7 | 0.00 | 0.00 | 0.00 | 35 | 1020.1 |
| 20260503174142 | 57 | 29 | 0.9 | 2.6 | 0.00 | 0.00 | 0.00 | 38 | 1020.2 |
| 20260503174042 | 57 | 5 | 0.9 | 2.6 | 0.00 | 0.00 | 0.00 | 38 | 1020.2 |
| 20260503173943 | 57 | 0 | 0.0 | 3.5 | 0.00 | 0.00 | 0.00 | 38 | 1020.0 |
| 20260503173842 | 57 | 52 | 0.9 | 3.5 | 0.00 | 0.00 | 0.00 | 41 | 1020.4 |
| 20260503173742 | 57 | 57 | 0.0 | 2.6 | 0.00 | 0.00 | 0.00 | 37 | 1020.1 |
| 20260503173642 | 57 | 41 | 0.0 | 0.9 | 0.00 | 0.00 | 0.00 | 37 | 1020.2 |
| 20260503173542 | 57 | 0 | 0.0 | 0.0 | 0.00 | 0.00 | 0.00 | 36 | 1020.2 |
| 20260503173441 | 56 | 0 | 0.0 | 0.0 | 0.00 | 0.00 | 0.00 | 39 | 1020.4 |
| 20260503173341 | 55 | 0 | 0.0 | 0.0 | 0.00 | 0.00 | 0.00 | 39 | 1020.2 |
| 20260503173242 | 56 | 0 | 0.0 | 0.0 | 0.00 | 0.00 | 0.00 | 41 | 1020.2 |
| 20260503173142 | 55 | 0 | 0.0 | 1.7 | 0.00 | 0.00 | 0.00 | 35 | 1020.1 |
| 20260503173041 | 56 | 15 | 1.7 | 1.7 | 0.00 | 0.00 | 0.00 | 36 | 1020.3 |
| 20260503172941 | 56 | 0 | 0.0 | 0.9 | 0.00 | 0.00 | 0.00 | 36 | 1020.4 |
| 20260503172841 | 56 | 0 | 0.0 | 0.9 | 0.00 | 0.00 | 0.00 | 39 | 1020.4 |
| 20260503172742 | 56 | 0 | 0.0 | 0.9 | 0.00 | 0.00 | 0.00 | 37 | 1020.4 |
| 20260503172641 | 56 | 0 | 0.0 | 2.6 | 0.00 | 0.00 | 0.00 | 42 | 1020.5 |
| 20260503172541 | 55 | 35 | 1.7 | 2.6 | 0.00 | 0.00 | 0.00 | 40 | 1020.5 |
| 20260503172441 | 55 | 0 | 0.0 | 0.9 | 0.00 | 0.00 | 0.00 | 39 | 1020.4 |
| 20260503172340 | 55 | 63 | 0.9 | 0.9 | 0.00 | 0.00 | 0.00 | 38 | 1020.5 |
| 20260503172241 | 55 | 27 | 0.0 | 0.9 | 0.00 | 0.00 | 0.00 | 43 | 1020.6 |
| 20260503172141 | 56 | 29 | 0.9 | 2.6 | 0.00 | 0.00 | 0.00 | 36 | 1020.5 |
| 20260503172041 | 56 | 353 | 0.0 | 1.7 | 0.00 | 0.00 | 0.00 | 40 | 1020.4 |
| 20260503171940 | 55 | 0 | 0.0 | 0.0 | 0.00 | 0.00 | 0.00 | 42 | 1020.5 |
| 20260503171841 | 56 | 0 | 0.0 | 0.0 | 0.00 | 0.00 | 0.00 | 39 | 1020.5 |
| 20260503171741 | 56 | 0 | 0.0 | 1.7 | 0.00 | 0.00 | 0.00 | 35 | 1020.4 |
| 20260503171641 | 56 | 72 | 0.9 | 2.6 | 0.00 | 0.00 | 0.00 | 35 | 1020.3 |
| 20260503171540 | 56 | 102 | 2.6 | 2.6 | 0.00 | 0.00 | 0.00 | 41 | 1020.4 |
| 20260503171440 | 55 | 111 | 0.0 | 0.9 | 0.00 | 0.00 | 0.00 | 40 | 1020.5 |
| 20260503171341 | 55 | 0 | 0.0 | 0.0 | 0.00 | 0.00 | 0.00 | 44 | 1020.5 |
| 20260503171241 | 56 | 0 | 0.0 | 2.6 | 0.00 | 0.00 | 0.00 | 40 | 1020.5 |
| 20260503171140 | 56 | 34 | 1.7 | 2.6 | 0.00 | 0.00 | 0.00 | 37 | 1020.7 |
| 20260503171040 | 55 | 18 | 2.6 | 2.6 | 0.00 | 0.00 | 0.00 | 40 | 1020.6 |
| 20260503170941 | 55 | 24 | 1.7 | 1.7 | 0.00 | 0.00 | 0.00 | 40 | 1020.4 |
| 20260503170841 | 55 | 74 | 0.9 | 1.7 | 0.00 | 0.00 | 0.00 | 39 | 1020.5 |
| 20260503170740 | 55 | 0 | 0.0 | 0.0 | 0.00 | 0.00 | 0.00 | 36 | 1020.3 |
| 20260503170640 | 55 | 0 | 0.0 | 0.0 | 0.00 | 0.00 | 0.00 | 36 | 1020.6 |
| 20260503170540 | 55 | 0 | 0.0 | 0.0 | 0.00 | 0.00 | 0.00 | 37 | 1020.6 |
| 20260503170441 | 55 | 0 | 0.0 | 0.0 | 0.00 | 0.00 | 0.00 | 43 | 1020.6 |
| 20260503170340 | 56 | 0 | 0.0 | 0.0 | 0.00 | 0.00 | 0.00 | 40 | 1020.5 |
| 20260503170240 | 56 | 0 | 0.0 | 1.7 | 0.00 | 0.00 | 0.00 | 42 | 1020.4 |
| 20260503170140 | 55 | 29 | 1.7 | 1.7 | 0.00 | 0.00 | 0.00 | 39 | 1020.6 |
| 20260503160133 | 54 | 0 | 0.0 | 3.5 | 0.00 | 0.00 | 0.00 | 39 | 1021.2 |
| 20260503150927 | 51 | 0 | 0.0 | 0.9 | 0.00 | 0.00 | 0.00 | 46 | 1021.6 |
| 20260503150826 | 51 | 0 | 0.0 | 1.7 | 0.00 | 0.00 | 0.00 | 47 | 1021.4 |
| 20260503150727 | 51 | 41 | 1.7 | 2.6 | 0.00 | 0.00 | 0.00 | 45 | 1021.5 |
| 20260503150627 | 51 | 30 | 1.7 | 2.6 | 0.00 | 0.00 | 0.00 | 44 | 1021.5 |
| 20260503150527 | 50 | 0 | 0.0 | 0.9 | 0.00 | 0.00 | 0.00 | 42 | 1021.6 |
| 20260503150426 | 51 | 0 | 0.0 | 1.7 | 0.00 | 0.00 | 0.00 | 42 | 1021.4 |
| 20260503150326 | 51 | 120 | 0.9 | 1.7 | 0.00 | 0.00 | 0.00 | 43 | 1021.4 |
| 20260503150226 | 51 | 92 | 0.9 | 1.7 | 0.00 | 0.00 | 0.00 | 43 | 1021.5 |
| 20260503150127 | 52 | 0 | 0.0 | 0.9 | 0.00 | 0.00 | 0.00 | 45 | 1021.4 |
| 20260503140221 | 49 | 0 | 0.0 | 1.7 | 0.00 | 0.00 | 0.00 | 46 | 1021.5 |
| 20260503140120 | 49 | 0 | 0.0 | 1.7 | 0.00 | 0.00 | 0.00 | 46 | 1021.4 |
| 20260503131359 | 47 | 0 | 0.0 | 1.7 | 0.00 | 0.00 | 0.00 | 47 | 1021.2 |
| 20260503131259 | 47 | 55 | 0.9 | 1.7 | 0.00 | 0.00 | 0.00 | 48 | 1021.2 |
| 20260503131159 | 47 | 33 | 0.9 | 2.6 | 0.00 | 0.00 | 0.00 | 48 | 1021.1 |
| 20260503131059 | 47 | 30 | 0.9 | 2.6 | 0.00 | 0.00 | 0.00 | 49 | 1021.2 |
| 20260503130959 | 47 | 0 | 0.0 | 1.7 | 0.00 | 0.00 | 0.00 | 50 | 1021.5 |
| 20260503130859 | 47 | 0 | 0.0 | 1.7 | 0.00 | 0.00 | 0.00 | 50 | 1021.2 |
| 20260503130759 | 47 | 0 | 0.0 | 0.9 | 0.00 | 0.00 | 0.00 | 48 | 1021.3 |
| 20260503130659 | 47 | 0 | 0.0 | 2.6 | 0.00 | 0.00 | 0.00 | 50 | 1021.2 |
| 20260503130559 | 47 | 2 | 0.0 | 1.7 | 0.00 | 0.00 | 0.00 | 50 | 1021.3 |
| 20260503130458 | 48 | 0 | 0.0 | 2.6 | 0.00 | 0.00 | 0.00 | 49 | 1021.2 |
| 20260503130358 | 47 | 54 | 0.9 | 2.6 | 0.00 | 0.00 | 0.00 | 49 | 1021.3 |
| 20260503130258 | 48 | 0 | 0.0 | 2.6 | 0.00 | 0.00 | 0.00 | 49 | 1021.3 |
| 20260503130159 | 48 | 55 | 0.9 | 3.5 | 0.00 | 0.00 | 0.00 | 53 | 1021.2 |
| 20260503120153 | 44 | 0 | 0.0 | 0.0 | 0.00 | 0.00 | 0.00 | 59 | 1020.6 |
| 20260503110749 | 42 | 0 | 0.0 | 0.0 | 0.00 | 0.00 | 0.00 | 62 | 1020.2 |
| 20260503110649 | 42 | 0 | 0.0 | 0.0 | 0.00 | 0.00 | 0.00 | 63 | 1020.0 |
| 20260503110549 | 42 | 0 | 0.0 | 0.0 | 0.00 | 0.00 | 0.00 | 61 | 1020.2 |
| 20260503110449 | 42 | 0 | 0.0 | 0.0 | 0.00 | 0.00 | 0.00 | 61 | 1019.9 |
| 20260503110349 | 42 | 0 | 0.0 | 0.0 | 0.00 | 0.00 | 0.00 | 61 | 1020.0 |
| 20260503110249 | 42 | 0 | 0.0 | 0.0 | 0.00 | 0.00 | 0.00 | 62 | 1019.8 |
| 20260503110149 | 42 | 0 | 0.0 | 0.0 | 0.00 | 0.00 | 0.00 | 62 | 1019.6 |